Time,TemperatureF,DewpointF,PressureIn,WindDirection,WindDirectionDegrees,WindSpeedMPH,WindSpeedGustMPH,Humidity,HourlyPrecipIn,Conditions,Clouds,dailyrainin,SoftwareType,DateUTC
2013-07-16 10:12:00,85.1,70.8,30.33,NNW,328,5.1,5.1,62,-99.99,,,-99.99,VWS V14.01,2013-07-16 14:12:00,
2013-07-16 10:13:00,85.1,70.7,30.33,NW,309,3.5,6.1,62,-99.99,,,-99.99,VWS V14.01,2013-07-16 14:13:00,
2013-07-16 10:14:00,85.1,70.4,30.33,NW,323,0.0,4.8,62,-99.99,,,-99.99,VWS V14.01,2013-07-16 14:14:00,
2013-07-16 10:15:00,85.2,70.3,30.33,West,264,0.0,3.2,61,-99.99,,,-99.99,VWS V14.01,2013-07-16 14:15:00,
2013-07-16 10:16:00,85.3,70.5,30.33,North,352,3.5,6.0,61,-99.99,,,-99.99,VWS V14.01,2013-07-16 14:16:00,
2013-07-16 10:17:00,85.3,70.2,30.33,NW,318,0.0,0.0,61,-99.99,,,-99.99,VWS V14.01,2013-07-16 14:17:00,
2013-07-16 10:18:00,85.3,70.4,30.33,NW,318,0.0,0.0,61,-99.99,,,-99.99,VWS V14.01,2013-07-16 14:18:00,
2013-07-16 10:19:00,85.2,70.2,30.33,WNW,294,0.0,5.1,61,-99.99,,,-99.99,VWS V14.01,2013-07-16 14:19:00,
2013-07-16 10:20:00,85.4,70.5,30.33,NNW,328,5.5,6.6,61,-99.99,,,-99.99,VWS V14.01,2013-07-16 14:20:00,
2013-07-16 10:21:00,85.3,70.3,30.33,WNW,298,5.8,5.8,61,-99.99,,,-99.99,VWS V14.01,2013-07-16 14:21:00,
2013-07-16 10:22:00,85.4,70.3,30.33,NW,321,5.2,6.3,61,-99.99,,,-99.99,VWS V14.01,2013-07-16 14:22:00,
2013-07-16 10:23:00,85.4,70.1,30.33,NW,318,4.5,6.5,60,-99.99,,,-99.99,VWS V14.01,2013-07-16 14:23:00,
2013-07-16 10:24:00,85.4,70.3,30.33,NNW,340,5.2,5.2,61,-99.99,,,-99.99,VWS V14.01,2013-07-16 14:24:00,
2013-07-16 10:25:00,85.5,70.4,30.34,WNW,294,0.0,5.3,61,-99.99,,,-99.99,VWS V14.01,2013-07-16 14:25:00,
2013-07-16 10:26:00,85.5,70.4,30.34,WSW,257,3.1,4.7,61,-99.99,,,-99.99,VWS V14.01,2013-07-16 14:26:00,
2013-07-16 10:27:00,85.6,70.3,30.34,West,270,0.0,0.0,60,-99.99,,,-99.99,VWS V14.01,2013-07-16 14:27:00,
2013-07-16 10:28:00,85.6,70.3,30.34,West,270,0.0,0.0,60,-99.99,,,-99.99,VWS V14.01,2013-07-16 14:28:00,
2013-07-16 10:29:00,85.6,70.4,30.34,WSW,246,0.0,3.4,60,-99.99,,,-99.99,VWS V14.01,2013-07-16 14:29:00,
2013-07-16 10:30:00,85.7,70.1,30.34,WSW,246,0.0,0.0,60,-99.99,,,-99.99,VWS V14.01,2013-07-16 14:30:00,
2013-07-16 10:31:00,85.7,69.9,30.34,WSW,246,0.0,0.0,59,-99.99,,,-99.99,VWS V14.01,2013-07-16 14:31:00,
2013-07-16 10:32:00,85.7,69.4,30.34,WNW,301,4.3,4.3,58,-99.99,,,-99.99,VWS V14.01,2013-07-16 14:32:00,
2013-07-16 10:33:00,85.8,69.4,30.34,North,359,0.0,7.6,58,-99.99,,,-99.99,VWS V14.01,2013-07-16 14:33:00,
2013-07-16 10:34:00,85.8,69.4,30.34,North,359,0.0,2.7,58,-99.99,,,-99.99,VWS V14.01,2013-07-16 14:34:00,
2013-07-16 10:35:00,85.8,69.8,30.34,SW,236,0.0,6.5,59,-99.99,,,-99.99,VWS V14.01,2013-07-16 14:35:00,
2013-07-16 10:36:00,85.9,70.0,30.34,SW,236,0.0,0.0,59,-99.99,,,-99.99,VWS V14.01,2013-07-16 14:36:00,
2013-07-16 10:37:00,85.8,69.9,30.35,WSW,239,0.0,0.0,59,-99.99,,,-99.99,VWS V14.01,2013-07-16 14:37:00,
2013-07-16 10:38:00,85.9,69.9,30.35,West,260,4.7,5.5,59,-99.99,,,-99.99,VWS V14.01,2013-07-16 14:38:00,
2013-07-16 10:39:00,86.0,69.9,30.35,North,359,4.3,7.6,59,-99.99,,,-99.99,VWS V14.01,2013-07-16 14:39:00,
2013-07-16 10:40:00,85.9,70.0,30.35,WNW,287,0.0,4.3,59,-99.99,,,-99.99,VWS V14.01,2013-07-16 14:40:00,
2013-07-16 10:41:00,86.0,70.2,30.35,NW,314,3.5,7.1,59,-99.99,,,-99.99,VWS V14.01,2013-07-16 14:41:00,
2013-07-16 10:42:00,86.0,70.3,30.35,WNW,297,0.0,6.2,60,-99.99,,,-99.99,VWS V14.01,2013-07-16 14:42:00,
2013-07-16 10:43:00,85.9,70.1,30.35,West,278,0.0,5.7,59,-99.99,,,-99.99,VWS V14.01,2013-07-16 14:43:00,
2013-07-16 10:44:00,86.0,70.0,30.35,West,278,0.0,0.0,59,-99.99,,,-99.99,VWS V14.01,2013-07-16 14:44:00,
2013-07-16 10:45:00,86.0,69.9,30.35,West,278,0.0,0.0,59,-99.99,,,-99.99,VWS V14.01,2013-07-16 14:45:00,
2013-07-16 10:46:00,86.0,69.7,30.35,West,278,0.0,0.0,58,-99.99,,,-99.99,VWS V14.01,2013-07-16 14:46:00,
2013-07-16 10:47:00,85.9,69.8,30.35,WSW,253,4.3,4.3,59,-99.99,,,-99.99,VWS V14.01,2013-07-16 14:47:00,
2013-07-16 10:48:00,86.0,69.9,30.35,NW,305,0.0,5.1,59,-99.99,,,-99.99,VWS V14.01,2013-07-16 14:48:00,
2013-07-16 10:49:00,85.9,69.7,30.35,WSW,243,0.0,4.5,59,-99.99,,,-99.99,VWS V14.01,2013-07-16 14:49:00,
2013-07-16 10:50:00,86.0,69.8,30.35,WSW,243,0.0,0.0,58,-99.99,,,-99.99,VWS V14.01,2013-07-16 14:50:00,
2013-07-16 10:51:00,86.1,69.8,30.35,WNW,298,0.0,3.5,58,-99.99,,,-99.99,VWS V14.01,2013-07-16 14:51:00,
2013-07-16 10:52:00,86.0,69.7,30.35,North,349,7.1,7.1,58,-99.99,,,-99.99,VWS V14.01,2013-07-16 14:52:00,
2013-07-16 10:53:00,86.0,69.8,30.35,NW,309,0.0,7.8,58,-99.99,,,-99.99,VWS V14.01,2013-07-16 14:53:00,
2013-07-16 10:54:00,86.0,69.1,30.35,NNW,333,0.0,3.2,57,-99.99,,,-99.99,VWS V14.01,2013-07-16 14:54:00,
2013-07-16 10:55:00,86.1,69.4,30.35,NNW,333,0.0,0.0,58,-99.99,,,-99.99,VWS V14.01,2013-07-16 14:55:00,
2013-07-16 10:56:00,85.9,69.4,30.35,NNW,333,0.0,0.0,58,-99.99,,,-99.99,VWS V14.01,2013-07-16 14:56:00,
2013-07-16 10:57:00,86.0,69.5,30.35,NNW,333,0.0,0.0,58,-99.99,,,-99.99,VWS V14.01,2013-07-16 14:57:00,
2013-07-16 10:58:00,86.0,69.4,30.35,NW,314,3.2,3.2,58,-99.99,,,-99.99,VWS V14.01,2013-07-16 14:58:00,
2013-07-16 10:59:00,86.0,69.5,30.35,WNW,283,0.0,4.4,58,-99.99,,,-99.99,VWS V14.01,2013-07-16 14:59:00,
2013-07-16 11:00:00,86.1,69.1,30.35,WNW,283,0.0,0.0,57,-99.99,,,-99.99,VWS V14.01,2013-07-16 15:00:00,
2013-07-16 11:01:00,86.0,69.1,30.36,WNW,283,0.0,0.0,57,-99.99,,,-99.99,VWS V14.01,2013-07-16 15:01:00,
2013-07-16 11:02:00,86.0,69.1,30.36,WNW,283,0.0,0.0,57,-99.99,,,-99.99,VWS V14.01,2013-07-16 15:02:00,
2013-07-16 11:03:00,86.0,69.3,30.36,WNW,283,0.0,0.0,58,-99.99,,,-99.99,VWS V14.01,2013-07-16 15:03:00,
2013-07-16 11:04:00,86.0,69.5,30.36,WNW,283,0.0,0.0,58,-99.99,,,-99.99,VWS V14.01,2013-07-16 15:04:00,
2013-07-16 11:05:00,86.0,69.7,30.36,WNW,290,0.0,3.4,58,-99.99,,,-99.99,VWS V14.01,2013-07-16 15:05:00,
2013-07-16 11:06:00,86.0,69.7,30.36,WNW,290,0.0,0.0,58,-99.99,,,-99.99,VWS V14.01,2013-07-16 15:06:00,
2013-07-16 11:07:00,86.0,69.9,30.36,WNW,290,0.0,0.0,59,-99.99,,,-99.99,VWS V14.01,2013-07-16 15:07:00,
2013-07-16 11:08:00,85.9,69.8,30.36,NW,321,0.0,2.9,59,-99.99,,,-99.99,VWS V14.01,2013-07-16 15:08:00,
2013-07-16 11:09:00,86.1,69.7,30.35,WSW,240,0.0,7.3,58,-99.99,,,-99.99,VWS V14.01,2013-07-16 15:09:00,
2013-07-16 11:10:00,86.0,69.7,30.35,WSW,240,0.0,0.0,58,-99.99,,,-99.99,VWS V14.01,2013-07-16 15:10:00,
2013-07-16 11:11:00,86.0,69.6,30.36,West,276,4.5,6.6,58,-99.99,,,-99.99,VWS V14.01,2013-07-16 15:11:00,
2013-07-16 11:12:00,86.1,69.6,30.35,SW,221,0.0,4.7,58,-99.99,,,-99.99,VWS V14.01,2013-07-16 15:12:00,
2013-07-16 11:13:00,86.1,69.7,30.36,WSW,246,0.0,4.5,58,-99.99,,,-99.99,VWS V14.01,2013-07-16 15:13:00,
2013-07-16 11:14:00,86.0,69.7,30.36,WNW,290,5.2,5.8,58,-99.99,,,-99.99,VWS V14.01,2013-07-16 15:14:00,
2013-07-16 11:16:00,86.1,69.8,30.36,West,260,0.0,0.0,58,-99.99,,,-99.99,VWS V14.01,2013-07-16 15:16:00,
2013-07-16 11:17:00,86.2,69.7,30.36,West,260,0.0,3.2,58,-99.99,,,-99.99,VWS V14.01,2013-07-16 15:17:00,
2013-07-16 11:18:00,86.0,69.6,30.36,West,260,0.0,0.0,58,-99.99,,,-99.99,VWS V14.01,2013-07-16 15:18:00,
2013-07-16 11:19:00,86.2,70.0,30.36,West,260,0.0,0.0,59,-99.99,,,-99.99,VWS V14.01,2013-07-16 15:19:00,
2013-07-16 11:20:00,86.2,70.2,30.36,NNW,328,0.0,4.9,59,-99.99,,,-99.99,VWS V14.01,2013-07-16 15:20:00,
2013-07-16 11:21:00,86.1,70.2,30.36,NNW,328,0.0,2.7,59,-99.99,,,-99.99,VWS V14.01,2013-07-16 15:21:00,
2013-07-16 11:22:00,86.3,70.4,30.36,NNW,328,0.0,0.0,59,-99.99,,,-99.99,VWS V14.01,2013-07-16 15:22:00,
2013-07-16 11:23:00,86.3,70.3,30.36,NNW,328,0.0,0.0,59,-99.99,,,-99.99,VWS V14.01,2013-07-16 15:23:00,
2013-07-16 11:24:00,86.4,70.4,30.36,WSW,246,0.0,3.4,59,-99.99,,,-99.99,VWS V14.01,2013-07-16 15:24:00,
2013-07-16 11:25:00,86.2,70.2,30.36,WNW,288,4.7,6.0,59,-99.99,,,-99.99,VWS V14.01,2013-07-16 15:25:00,
2013-07-16 11:27:00,86.4,70.5,30.36,SW,231,0.0,0.0,59,-99.99,,,-99.99,VWS V14.01,2013-07-16 15:27:00,
2013-07-16 11:28:00,86.4,70.4,30.36,West,276,0.0,5.3,59,-99.99,,,-99.99,VWS V14.01,2013-07-16 15:28:00,
2013-07-16 11:29:00,86.4,70.3,30.36,West,276,0.0,0.0,59,-99.99,,,-99.99,VWS V14.01,2013-07-16 15:29:00,
2013-07-16 11:30:00,86.3,70.4,30.36,West,276,0.0,0.0,59,-99.99,,,-99.99,VWS V14.01,2013-07-16 15:30:00,
2013-07-16 11:31:00,86.3,70.6,30.36,West,276,0.0,0.0,60,-99.99,,,-99.99,VWS V14.01,2013-07-16 15:31:00,
2013-07-16 11:32:00,86.4,70.5,30.36,West,276,0.0,0.0,59,-99.99,,,-99.99,VWS V14.01,2013-07-16 15:32:00,
2013-07-16 11:33:00,86.3,70.2,30.36,West,276,0.0,0.0,59,-99.99,,,-99.99,VWS V14.01,2013-07-16 15:33:00,
2013-07-16 11:34:00,86.4,70.4,30.36,WSW,242,3.5,4.8,59,-99.99,,,-99.99,VWS V14.01,2013-07-16 15:34:00,
2013-07-16 11:35:00,86.4,70.5,30.36,WSW,242,0.0,3.5,59,-99.99,,,-99.99,VWS V14.01,2013-07-16 15:35:00,
2013-07-16 11:36:00,86.4,70.5,30.36,WSW,242,0.0,4.3,59,-99.99,,,-99.99,VWS V14.01,2013-07-16 15:36:00,
2013-07-16 11:37:00,86.4,70.4,30.36,NNW,329,0.0,5.5,59,-99.99,,,-99.99,VWS V14.01,2013-07-16 15:37:00,
2013-07-16 11:38:00,86.3,70.2,30.36,NNW,329,0.0,5.5,59,-99.99,,,-99.99,VWS V14.01,2013-07-16 15:38:00,
2013-07-16 11:39:00,86.3,70.3,30.36,NNW,329,0.0,0.0,59,-99.99,,,-99.99,VWS V14.01,2013-07-16 15:39:00,
2013-07-16 11:40:00,86.4,70.4,30.36,West,267,4.5,7.0,59,-99.99,,,-99.99,VWS V14.01,2013-07-16 15:40:00,
2013-07-16 11:41:00,86.4,70.2,30.36,SW,219,0.0,4.5,59,-99.99,,,-99.99,VWS V14.01,2013-07-16 15:41:00,
2013-07-16 11:42:00,86.4,70.0,30.36,SW,219,0.0,0.0,58,-99.99,,,-99.99,VWS V14.01,2013-07-16 15:42:00,
2013-07-16 11:43:00,86.6,70.1,30.36,SW,219,0.0,0.0,58,-99.99,,,-99.99,VWS V14.01,2013-07-16 15:43:00,
2013-07-16 11:44:00,86.5,70.1,30.36,WNW,300,4.3,4.8,58,-99.99,,,-99.99,VWS V14.01,2013-07-16 15:44:00,
2013-07-16 11:45:00,86.5,69.9,30.36,WNW,298,3.1,8.3,58,-99.99,,,-99.99,VWS V14.01,2013-07-16 15:45:00,
2013-07-16 11:46:00,86.5,70.1,30.36,WNW,298,5.7,7.5,58,-99.99,,,-99.99,VWS V14.01,2013-07-16 15:46:00,
2013-07-16 11:47:00,86.5,70.1,30.36,WNW,298,0.0,0.0,58,-99.99,,,-99.99,VWS V14.01,2013-07-16 15:47:00,
2013-07-16 11:48:00,86.7,70.0,30.36,WNW,298,0.0,0.0,58,-99.99,,,-99.99,VWS V14.01,2013-07-16 15:48:00,
2013-07-16 11:49:00,86.6,69.8,30.36,WNW,298,0.0,0.0,58,-99.99,,,-99.99,VWS V14.01,2013-07-16 15:49:00,
2013-07-16 11:50:00,86.5,69.9,30.36,WNW,298,0.0,0.0,58,-99.99,,,-99.99,VWS V14.01,2013-07-16 15:50:00,
2013-07-16 11:51:00,86.6,69.9,30.36,WNW,298,0.0,0.0,58,-99.99,,,-99.99,VWS V14.01,2013-07-16 15:51:00,
2013-07-16 11:52:00,86.6,69.8,30.36,SSW,205,0.0,0.0,57,-99.99,,,-99.99,VWS V14.01,2013-07-16 15:52:00,
2013-07-16 11:53:00,86.8,69.9,30.36,SSW,205,0.0,0.0,57,-99.99,,,-99.99,VWS V14.01,2013-07-16 15:53:00,
2013-07-16 11:54:00,86.8,70.2,30.36,West,259,3.0,5.5,58,-99.99,,,-99.99,VWS V14.01,2013-07-16 15:54:00,
2013-07-16 11:55:00,87.0,70.5,30.36,WNW,300,4.7,4.7,58,-99.99,,,-99.99,VWS V14.01,2013-07-16 15:55:00,
2013-07-16 11:56:00,86.8,69.7,30.36,WNW,301,3.2,5.8,57,-99.99,,,-99.99,VWS V14.01,2013-07-16 15:56:00,
2013-07-16 11:57:00,86.8,69.7,30.36,NW,307,0.0,0.0,57,-99.99,,,-99.99,VWS V14.01,2013-07-16 15:57:00,
2013-07-16 11:58:00,86.7,69.4,30.36,NW,307,0.0,0.0,56,-99.99,,,-99.99,VWS V14.01,2013-07-16 15:58:00,
2013-07-16 11:59:00,86.7,69.9,30.36,West,264,0.0,6.2,57,-99.99,,,-99.99,VWS V14.01,2013-07-16 15:59:00,
2013-07-16 12:00:00,86.7,69.9,30.36,West,264,0.0,1.7,58,-99.99,,,-99.99,VWS V14.01,2013-07-16 16:00:00,
2013-07-16 12:01:00,86.6,69.9,30.36,NNW,330,3.2,3.2,58,-99.99,,,-99.99,VWS V14.01,2013-07-16 16:01:00,
2013-07-16 12:02:00,86.6,70.1,30.36,WSW,249,0.0,0.0,58,-99.99,,,-99.99,VWS V14.01,2013-07-16 16:02:00,
2013-07-16 12:03:00,86.7,70.2,30.36,WSW,249,0.0,0.0,58,-99.99,,,-99.99,VWS V14.01,2013-07-16 16:03:00,
2013-07-16 12:04:00,86.7,70.2,30.36,WSW,249,0.0,0.0,58,-99.99,,,-99.99,VWS V14.01,2013-07-16 16:04:00,
2013-07-16 12:05:00,86.7,70.2,30.36,NNW,335,7.4,7.4,58,-99.99,,,-99.99,VWS V14.01,2013-07-16 16:05:00,
2013-07-16 12:06:00,86.6,70.0,30.36,NNW,339,0.0,7.5,58,-99.99,,,-99.99,VWS V14.01,2013-07-16 16:06:00,
2013-07-16 12:07:00,86.6,70.1,30.36,NNW,339,0.0,0.0,58,-99.99,,,-99.99,VWS V14.01,2013-07-16 16:07:00,
2013-07-16 12:08:00,86.6,70.4,30.36,NNW,339,0.0,0.0,59,-99.99,,,-99.99,VWS V14.01,2013-07-16 16:08:00,
2013-07-16 12:09:00,86.7,70.6,30.36,NNW,339,0.0,0.0,59,-99.99,,,-99.99,VWS V14.01,2013-07-16 16:09:00,
2013-07-16 12:10:00,86.6,70.1,30.36,NW,316,0.0,6.0,58,-99.99,,,-99.99,VWS V14.01,2013-07-16 16:10:00,
2013-07-16 12:11:00,86.7,70.1,30.36,WSW,245,3.4,6.0,58,-99.99,,,-99.99,VWS V14.01,2013-07-16 16:11:00,
2013-07-16 12:12:00,86.7,69.8,30.36,WSW,239,0.0,0.0,57,-99.99,,,-99.99,VWS V14.01,2013-07-16 16:12:00,
2013-07-16 12:13:00,86.7,69.8,30.36,WNW,294,0.0,8.4,57,-99.99,,,-99.99,VWS V14.01,2013-07-16 16:13:00,
2013-07-16 12:14:00,86.6,69.7,30.36,SW,233,0.0,7.1,57,-99.99,,,-99.99,VWS V14.01,2013-07-16 16:14:00,
2013-07-16 12:15:00,86.8,70.4,30.36,North,4,0.0,8.3,58,-99.99,,,-99.99,VWS V14.01,2013-07-16 16:15:00,
2013-07-16 12:16:00,86.7,70.2,30.36,NNW,333,4.6,6.5,58,-99.99,,,-99.99,VWS V14.01,2013-07-16 16:16:00,
2013-07-16 12:17:00,86.9,70.2,30.36,WSW,246,3.0,3.5,58,-99.99,,,-99.99,VWS V14.01,2013-07-16 16:17:00,
2013-07-16 12:18:00,86.8,70.0,30.36,WSW,246,0.0,3.5,57,-99.99,,,-99.99,VWS V14.01,2013-07-16 16:18:00,
2013-07-16 12:19:00,87.1,70.4,30.36,WSW,246,0.0,0.0,58,-99.99,,,-99.99,VWS V14.01,2013-07-16 16:19:00,
2013-07-16 12:20:00,87.1,70.0,30.36,WNW,291,4.3,5.8,57,-99.99,,,-99.99,VWS V14.01,2013-07-16 16:20:00,
2013-07-16 12:21:00,87.2,70.4,30.36,WNW,284,0.0,6.3,58,-99.99,,,-99.99,VWS V14.01,2013-07-16 16:21:00,
2013-07-16 12:22:00,87.4,69.8,30.36,NW,314,4.7,4.7,56,-99.99,,,-99.99,VWS V14.01,2013-07-16 16:22:00,
2013-07-16 12:23:00,87.4,69.8,30.36,NW,316,6.5,6.5,56,-99.99,,,-99.99,VWS V14.01,2013-07-16 16:23:00,
2013-07-16 12:24:00,87.5,69.7,30.36,WSW,253,3.4,6.5,56,-99.99,,,-99.99,VWS V14.01,2013-07-16 16:24:00,
2013-07-16 12:25:00,87.5,70.0,30.36,WSW,253,0.0,3.4,56,-99.99,,,-99.99,VWS V14.01,2013-07-16 16:25:00,
2013-07-16 12:26:00,87.7,70.1,30.35,WNW,290,0.0,3.4,56,-99.99,,,-99.99,VWS V14.01,2013-07-16 16:26:00,
2013-07-16 12:27:00,87.6,69.2,30.35,WNW,290,0.0,0.0,54,-99.99,,,-99.99,VWS V14.01,2013-07-16 16:27:00,
2013-07-16 12:28:00,87.7,69.5,30.35,NNW,343,0.0,6.0,55,-99.99,,,-99.99,VWS V14.01,2013-07-16 16:28:00,
2013-07-16 12:29:00,87.7,69.5,30.35,NNW,336,0.0,4.4,55,-99.99,,,-99.99,VWS V14.01,2013-07-16 16:29:00,
2013-07-16 12:30:00,87.7,69.6,30.35,NW,305,0.0,7.9,55,-99.99,,,-99.99,VWS V14.01,2013-07-16 16:30:00,
2013-07-16 12:31:00,87.8,69.6,30.35,NNW,342,5.0,7.3,55,-99.99,,,-99.99,VWS V14.01,2013-07-16 16:31:00,
2013-07-16 12:32:00,87.8,69.1,30.35,NNW,339,0.0,7.8,54,-99.99,,,-99.99,VWS V14.01,2013-07-16 16:32:00,
2013-07-16 12:33:00,87.8,68.9,30.35,West,270,3.2,7.8,54,-99.99,,,-99.99,VWS V14.01,2013-07-16 16:33:00,
2013-07-16 12:34:00,87.9,69.5,30.35,West,270,0.0,3.2,54,-99.99,,,-99.99,VWS V14.01,2013-07-16 16:34:00,
2013-07-16 12:35:00,87.9,69.1,30.35,North,349,0.0,5.2,54,-99.99,,,-99.99,VWS V14.01,2013-07-16 16:35:00,
2013-07-16 12:36:00,87.9,69.0,30.35,NNW,340,5.7,6.2,54,-99.99,,,-99.99,VWS V14.01,2013-07-16 16:36:00,
2013-07-16 12:37:00,88.0,69.2,30.35,West,264,3.2,5.3,54,-99.99,,,-99.99,VWS V14.01,2013-07-16 16:37:00,
2013-07-16 12:38:00,88.2,69.6,30.35,WSW,250,3.0,5.7,54,-99.99,,,-99.99,VWS V14.01,2013-07-16 16:38:00,
2013-07-16 12:49:00,88.6,68.0,30.34,WSW,245,0.0,0.0,51,-99.99,,,-99.99,VWS V14.01,2013-07-16 16:49:00,
2013-07-16 12:50:00,88.6,68.2,30.34,SW,226,3.4,3.4,51,-99.99,,,-99.99,VWS V14.01,2013-07-16 16:50:00,
2013-07-16 12:51:00,88.6,68.3,30.34,WSW,257,0.0,5.2,51,-99.99,,,-99.99,VWS V14.01,2013-07-16 16:51:00,
2013-07-16 12:52:00,88.6,68.5,30.34,WNW,283,5.3,5.8,52,-99.99,,,-99.99,VWS V14.01,2013-07-16 16:52:00,
2013-07-16 12:53:00,88.5,68.5,30.34,West,277,6.3,7.6,52,-99.99,,,-99.99,VWS V14.01,2013-07-16 16:53:00,
2013-07-16 12:54:00,88.8,68.9,30.34,West,269,2.2,4.8,52,-99.99,,,-99.99,VWS V14.01,2013-07-16 16:54:00,
2013-07-16 12:55:00,88.8,68.8,30.34,WNW,288,4.5,7.2,52,-99.99,,,-99.99,VWS V14.01,2013-07-16 16:55:00,
2013-07-16 12:56:00,88.8,68.7,30.34,NE,48,0.0,5.8,52,-99.99,,,-99.99,VWS V14.01,2013-07-16 16:56:00,
2013-07-16 12:57:00,88.7,68.3,30.34,NE,48,0.0,0.0,51,-99.99,,,-99.99,VWS V14.01,2013-07-16 16:57:00,
2013-07-16 12:58:00,88.7,68.6,30.34,West,278,4.2,6.8,52,-99.99,,,-99.99,VWS V14.01,2013-07-16 16:58:00,
2013-07-16 12:59:00,88.8,68.6,30.34,West,278,0.0,4.2,51,-99.99,,,-99.99,VWS V14.01,2013-07-16 16:59:00,
2013-07-16 13:00:00,88.8,69.2,30.34,NW,319,3.5,5.2,52,-99.99,,,-99.99,VWS V14.01,2013-07-16 17:00:00,
2013-07-16 13:01:00,88.9,69.6,30.34,NW,316,0.0,4.5,53,-99.99,,,-99.99,VWS V14.01,2013-07-16 17:01:00,
2013-07-16 13:02:00,88.8,69.6,30.34,SW,233,3.4,5.0,53,-99.99,,,-99.99,VWS V14.01,2013-07-16 17:02:00,
2013-07-16 13:03:00,88.9,69.5,30.34,WNW,294,1.8,4.5,53,-99.99,,,-99.99,VWS V14.01,2013-07-16 17:03:00,
2013-07-16 13:04:00,89.2,69.7,30.33,WNW,294,0.0,0.0,53,-99.99,,,-99.99,VWS V14.01,2013-07-16 17:04:00,
2013-07-16 13:05:00,89.0,69.4,30.34,WNW,294,0.0,0.0,53,-99.99,,,-99.99,VWS V14.01,2013-07-16 17:05:00,
2013-07-16 13:06:00,88.9,68.7,30.33,NW,316,0.0,4.7,51,-99.99,,,-99.99,VWS V14.01,2013-07-16 17:06:00,
2013-07-16 13:07:00,89.0,69.0,30.33,WSW,243,6.8,7.0,52,-99.99,,,-99.99,VWS V14.01,2013-07-16 17:07:00,
2013-07-16 13:08:00,89.0,68.8,30.33,WNW,294,4.3,8.8,51,-99.99,,,-99.99,VWS V14.01,2013-07-16 17:08:00,
2013-07-16 13:09:00,89.2,68.4,30.33,WSW,238,0.0,0.0,50,-99.99,,,-99.99,VWS V14.01,2013-07-16 17:09:00,
2013-07-16 13:10:00,89.2,68.2,30.33,WSW,238,0.0,0.0,50,-99.99,,,-99.99,VWS V14.01,2013-07-16 17:10:00,
2013-07-16 13:11:00,89.2,68.2,30.33,WNW,284,0.0,3.3,50,-99.99,,,-99.99,VWS V14.01,2013-07-16 17:11:00,
2013-07-16 13:12:00,89.2,67.9,30.33,WNW,284,4.7,4.7,50,-99.99,,,-99.99,VWS V14.01,2013-07-16 17:12:00,
2013-07-16 13:13:00,89.3,68.1,30.33,North,357,4.6,7.4,50,-99.99,,,-99.99,VWS V14.01,2013-07-16 17:13:00,
2013-07-16 13:14:00,89.5,68.4,30.33,NW,314,0.0,5.6,50,-99.99,,,-99.99,VWS V14.01,2013-07-16 17:14:00,
2013-07-16 13:15:00,89.3,67.9,30.33,NW,325,9.5,9.5,50,-99.99,,,-99.99,VWS V14.01,2013-07-16 17:15:00,
2013-07-16 13:16:00,89.3,67.7,30.33,WNW,288,0.0,9.5,49,-99.99,,,-99.99,VWS V14.01,2013-07-16 17:16:00,
2013-07-16 13:17:00,89.2,67.6,30.33,NW,326,0.0,5.5,49,-99.99,,,-99.99,VWS V14.01,2013-07-16 17:17:00,
2013-07-16 13:18:00,89.3,67.6,30.33,NW,326,0.0,0.0,49,-99.99,,,-99.99,VWS V14.01,2013-07-16 17:18:00,
2013-07-16 13:19:00,89.2,66.4,30.33,NW,318,2.9,7.3,47,-99.99,,,-99.99,VWS V14.01,2013-07-16 17:19:00,
2013-07-16 13:20:00,89.2,67.0,30.33,NW,322,4.8,7.3,48,-99.99,,,-99.99,VWS V14.01,2013-07-16 17:20:00,
2013-07-16 13:21:00,89.3,67.2,30.33,West,278,3.0,6.8,48,-99.99,,,-99.99,VWS V14.01,2013-07-16 17:21:00,
2013-07-16 13:22:00,89.2,66.9,30.33,West,278,0.0,3.0,48,-99.99,,,-99.99,VWS V14.01,2013-07-16 17:22:00,
2013-07-16 13:23:00,89.3,66.7,30.33,West,278,0.0,0.0,47,-99.99,,,-99.99,VWS V14.01,2013-07-16 17:23:00,
2013-07-16 13:24:00,89.4,67.1,30.33,WNW,284,3.5,7.4,48,-99.99,,,-99.99,VWS V14.01,2013-07-16 17:24:00,
2013-07-16 13:25:00,89.4,67.4,30.33,NW,316,4.2,7.4,48,-99.99,,,-99.99,VWS V14.01,2013-07-16 17:25:00,
2013-07-16 13:26:00,89.3,66.3,30.33,NW,311,5.2,9.1,47,-99.99,,,-99.99,VWS V14.01,2013-07-16 17:26:00,
2013-07-16 13:27:00,89.4,66.8,30.32,WNW,294,0.0,5.8,47,-99.99,,,-99.99,VWS V14.01,2013-07-16 17:27:00,
2013-07-16 13:28:00,89.3,67.2,30.33,WNW,300,4.8,4.8,48,-99.99,,,-99.99,VWS V14.01,2013-07-16 17:28:00,
2013-07-16 13:29:00,89.4,67.1,30.32,WNW,288,0.0,0.0,48,-99.99,,,-99.99,VWS V14.01,2013-07-16 17:29:00,
2013-07-16 13:30:00,89.5,67.2,30.32,SW,232,3.5,3.5,48,-99.99,,,-99.99,VWS V14.01,2013-07-16 17:30:00,
2013-07-16 13:31:00,89.5,67.0,30.32,West,277,0.0,4.8,48,-99.99,,,-99.99,VWS V14.01,2013-07-16 17:31:00,
2013-07-16 13:32:00,89.5,66.5,30.32,West,271,0.0,5.5,47,-99.99,,,-99.99,VWS V14.01,2013-07-16 17:32:00,
2013-07-16 13:33:00,89.5,66.6,30.32,West,271,0.0,2.7,47,-99.99,,,-99.99,VWS V14.01,2013-07-16 17:33:00,
2013-07-16 13:34:00,89.6,67.6,30.32,WNW,295,3.5,6.1,48,-99.99,,,-99.99,VWS V14.01,2013-07-16 17:34:00,
2013-07-16 13:35:00,89.6,67.5,30.32,WNW,295,0.0,6.1,48,-99.99,,,-99.99,VWS V14.01,2013-07-16 17:35:00,
2013-07-16 13:36:00,89.5,67.5,30.32,NNW,330,5.2,8.1,48,-99.99,,,-99.99,VWS V14.01,2013-07-16 17:36:00,
2013-07-16 13:37:00,89.5,66.9,30.32,NNW,336,6.2,6.8,48,-99.99,,,-99.99,VWS V14.01,2013-07-16 17:37:00,
2013-07-16 13:38:00,89.5,66.9,30.32,WNW,298,0.0,7.5,48,-99.99,,,-99.99,VWS V14.01,2013-07-16 17:38:00,
2013-07-16 13:39:00,89.6,67.3,30.32,SW,218,0.0,0.0,48,-99.99,,,-99.99,VWS V14.01,2013-07-16 17:39:00,
2013-07-16 13:40:00,89.6,67.2,30.32,SW,218,0.0,0.0,48,-99.99,,,-99.99,VWS V14.01,2013-07-16 17:40:00,
2013-07-16 13:41:00,89.5,66.9,30.32,SW,218,0.0,0.0,47,-99.99,,,-99.99,VWS V14.01,2013-07-16 17:41:00,
2013-07-16 13:42:00,89.5,67.9,30.32,West,277,0.0,4.4,49,-99.99,,,-99.99,VWS V14.01,2013-07-16 17:42:00,
2013-07-16 13:43:00,89.7,68.4,30.32,West,277,0.0,0.0,50,-99.99,,,-99.99,VWS V14.01,2013-07-16 17:43:00,
2013-07-16 13:44:00,89.5,67.4,30.32,WNW,295,5.9,10.1,48,-99.99,,,-99.99,VWS V14.01,2013-07-16 17:44:00,
2013-07-16 13:45:00,89.6,67.9,30.32,NNW,340,0.0,10.1,49,-99.99,,,-99.99,VWS V14.01,2013-07-16 17:45:00,
2013-07-16 13:46:00,89.6,67.7,30.32,West,264,0.0,6.5,49,-99.99,,,-99.99,VWS V14.01,2013-07-16 17:46:00,
2013-07-16 13:47:00,89.5,67.3,30.32,West,264,0.0,0.0,48,-99.99,,,-99.99,VWS V14.01,2013-07-16 17:47:00,
2013-07-16 13:48:00,89.5,67.4,30.32,West,264,3.2,3.2,48,-99.99,,,-99.99,VWS V14.01,2013-07-16 17:48:00,
2013-07-16 13:49:00,89.5,67.5,30.32,NW,315,3.2,4.7,48,-99.99,,,-99.99,VWS V14.01,2013-07-16 17:49:00,
2013-07-16 13:50:00,89.5,67.4,30.32,North,4,0.0,5.3,48,-99.99,,,-99.99,VWS V14.01,2013-07-16 17:50:00,
2013-07-16 13:51:00,89.6,67.4,30.32,North,4,0.0,0.0,48,-99.99,,,-99.99,VWS V14.01,2013-07-16 17:51:00,
2013-07-16 13:52:00,89.5,67.5,30.32,North,4,0.0,0.0,48,-99.99,,,-99.99,VWS V14.01,2013-07-16 17:52:00,
2013-07-16 13:53:00,89.5,67.7,30.32,West,277,4.7,4.7,49,-99.99,,,-99.99,VWS V14.01,2013-07-16 17:53:00,
2013-07-16 13:54:00,89.5,67.5,30.32,West,269,0.0,0.0,48,-99.99,,,-99.99,VWS V14.01,2013-07-16 17:54:00,
2013-07-16 13:55:00,89.6,67.4,30.31,NW,326,3.4,7.1,48,-99.99,,,-99.99,VWS V14.01,2013-07-16 17:55:00,
2013-07-16 13:56:00,89.6,67.1,30.32,NW,315,4.7,6.0,48,-99.99,,,-99.99,VWS V14.01,2013-07-16 17:56:00,
2013-07-16 13:57:00,89.4,66.9,30.32,NW,315,0.0,4.7,48,-99.99,,,-99.99,VWS V14.01,2013-07-16 17:57:00,
2013-07-16 13:58:00,89.5,67.5,30.31,West,281,4.7,8.6,48,-99.99,,,-99.99,VWS V14.01,2013-07-16 17:58:00,
2013-07-16 13:59:00,89.5,67.4,30.32,WNW,285,3.0,3.3,48,-99.99,,,-99.99,VWS V14.01,2013-07-16 17:59:00,
2013-07-16 14:00:00,89.6,67.3,30.31,WNW,285,0.0,3.3,48,-99.99,,,-99.99,VWS V14.01,2013-07-16 18:00:00,
2013-07-16 14:01:00,89.6,67.0,30.31,WNW,285,0.0,0.0,48,-99.99,,,-99.99,VWS V14.01,2013-07-16 18:01:00,
2013-07-16 14:02:00,89.5,66.5,30.31,WNW,285,0.0,0.0,47,-99.99,,,-99.99,VWS V14.01,2013-07-16 18:02:00,
2013-07-16 14:03:00,89.5,66.6,30.31,WNW,301,6.2,6.2,47,-99.99,,,-99.99,VWS V14.01,2013-07-16 18:03:00,
2013-07-16 14:04:00,89.5,66.7,30.32,WSW,248,0.0,0.0,47,-99.99,,,-99.99,VWS V14.01,2013-07-16 18:04:00,
2013-07-16 14:05:00,89.5,66.5,30.32,WSW,248,0.0,0.0,47,-99.99,,,-99.99,VWS V14.01,2013-07-16 18:05:00,
2013-07-16 14:06:00,89.5,67.3,30.32,WSW,238,3.0,6.0,48,-99.99,,,-99.99,VWS V14.01,2013-07-16 18:06:00,
2013-07-16 14:07:00,89.5,67.4,30.31,WSW,250,4.3,8.4,48,-99.99,,,-99.99,VWS V14.01,2013-07-16 18:07:00,
2013-07-16 14:08:00,89.5,67.4,30.31,WNW,295,0.0,7.0,48,-99.99,,,-99.99,VWS V14.01,2013-07-16 18:08:00,
2013-07-16 14:09:00,89.7,67.7,30.31,SW,228,0.0,3.4,48,-99.99,,,-99.99,VWS V14.01,2013-07-16 18:09:00,
2013-07-16 14:10:00,89.7,67.2,30.31,West,266,4.4,6.4,48,-99.99,,,-99.99,VWS V14.01,2013-07-16 18:10:00,
2013-07-16 14:11:00,89.6,67.2,30.31,West,266,3.4,4.4,48,-99.99,,,-99.99,VWS V14.01,2013-07-16 18:11:00,
2013-07-16 14:12:00,89.7,66.9,30.31,SSW,198,0.0,3.4,47,-99.99,,,-99.99,VWS V14.01,2013-07-16 18:12:00,
2013-07-16 14:13:00,89.9,67.4,30.31,West,260,3.5,8.3,48,-99.99,,,-99.99,VWS V14.01,2013-07-16 18:13:00,
2013-07-16 14:14:00,89.8,67.1,30.31,WNW,287,0.0,0.0,47,-99.99,,,-99.99,VWS V14.01,2013-07-16 18:14:00,
2013-07-16 14:16:00,89.9,66.7,30.31,NW,305,3.5,4.7,47,-99.99,,,-99.99,VWS V14.01,2013-07-16 18:16:00,
2013-07-16 14:17:00,89.7,66.6,30.31,NNW,346,0.0,4.3,47,-99.99,,,-99.99,VWS V14.01,2013-07-16 18:17:00,
2013-07-16 14:18:00,89.8,67.3,30.31,WNW,284,5.7,6.6,48,-99.99,,,-99.99,VWS V14.01,2013-07-16 18:18:00,
2013-07-16 14:19:00,89.8,67.4,30.31,NW,325,0.0,0.0,48,-99.99,,,-99.99,VWS V14.01,2013-07-16 18:19:00,
2013-07-16 14:20:00,89.9,67.5,30.31,NW,325,0.0,0.0,48,-99.99,,,-99.99,VWS V14.01,2013-07-16 18:20:00,
2013-07-16 14:21:00,90.0,67.2,30.31,NW,325,0.0,0.0,47,-99.99,,,-99.99,VWS V14.01,2013-07-16 18:21:00,
2013-07-16 14:22:00,90.0,67.6,30.31,NW,325,0.0,0.0,48,-99.99,,,-99.99,VWS V14.01,2013-07-16 18:22:00,
2013-07-16 14:23:00,89.9,67.5,30.31,NW,311,0.0,5.6,48,-99.99,,,-99.99,VWS V14.01,2013-07-16 18:23:00,
2013-07-16 14:24:00,90.2,67.7,30.31,WNW,297,0.0,1.9,48,-99.99,,,-99.99,VWS V14.01,2013-07-16 18:24:00,
2013-07-16 14:25:00,90.2,67.6,30.31,WNW,297,0.0,1.9,48,-99.99,,,-99.99,VWS V14.01,2013-07-16 18:25:00,
2013-07-16 14:26:00,90.2,67.6,30.31,WNW,297,0.0,0.0,48,-99.99,,,-99.99,VWS V14.01,2013-07-16 18:26:00,
2013-07-16 14:27:00,90.3,67.5,30.31,WNW,297,0.0,0.0,47,-99.99,,,-99.99,VWS V14.01,2013-07-16 18:27:00,
2013-07-16 14:28:00,90.3,67.4,30.31,WNW,297,0.0,0.0,47,-99.99,,,-99.99,VWS V14.01,2013-07-16 18:28:00,
2013-07-16 14:29:00,90.3,67.2,30.31,WNW,297,0.0,0.0,47,-99.99,,,-99.99,VWS V14.01,2013-07-16 18:29:00,
2013-07-16 14:30:00,90.3,67.7,30.31,NW,308,7.0,7.1,48,-99.99,,,-99.99,VWS V14.01,2013-07-16 18:30:00,
2013-07-16 14:31:00,90.2,67.9,30.31,NNW,342,0.0,8.5,48,-99.99,,,-99.99,VWS V14.01,2013-07-16 18:31:00,
2013-07-16 14:32:00,90.0,67.6,30.31,NNW,342,0.0,0.0,48,-99.99,,,-99.99,VWS V14.01,2013-07-16 18:32:00,
2013-07-16 14:33:00,89.9,68.1,30.31,NW,311,5.8,5.8,49,-99.99,,,-99.99,VWS V14.01,2013-07-16 18:33:00,
2013-07-16 14:34:00,89.9,68.5,30.31,WNW,297,0.0,3.2,50,-99.99,,,-99.99,VWS V14.01,2013-07-16 18:34:00,
2013-07-16 14:35:00,89.8,68.3,30.31,WNW,297,0.0,5.5,49,-99.99,,,-99.99,VWS V14.01,2013-07-16 18:35:00,
2013-07-16 14:36:00,89.7,68.2,30.31,NNW,328,5.0,6.1,49,-99.99,,,-99.99,VWS V14.01,2013-07-16 18:36:00,
2013-07-16 14:37:00,89.7,68.1,30.31,West,273,5.6,7.5,49,-99.99,,,-99.99,VWS V14.01,2013-07-16 18:37:00,
2013-07-16 14:38:00,89.7,67.8,30.31,WNW,284,4.3,5.7,49,-99.99,,,-99.99,VWS V14.01,2013-07-16 18:38:00,
2013-07-16 14:39:00,89.7,68.0,30.31,NW,321,4.2,5.1,49,-99.99,,,-99.99,VWS V14.01,2013-07-16 18:39:00,
2013-07-16 14:40:00,89.8,67.9,30.31,WNW,297,6.1,7.1,49,-99.99,,,-99.99,VWS V14.01,2013-07-16 18:40:00,
2013-07-16 14:41:00,89.7,67.5,30.31,NW,316,0.0,6.1,48,-99.99,,,-99.99,VWS V14.01,2013-07-16 18:41:00,
2013-07-16 14:42:00,89.7,67.7,30.31,West,270,3.4,7.3,48,-99.99,,,-99.99,VWS V14.01,2013-07-16 18:42:00,
2013-07-16 14:43:00,89.6,67.2,30.31,NW,305,7.3,8.9,48,-99.99,,,-99.99,VWS V14.01,2013-07-16 18:43:00,
2013-07-16 14:44:00,89.7,68.1,30.30,West,266,4.2,4.2,49,-99.99,,,-99.99,VWS V14.01,2013-07-16 18:44:00,
2013-07-16 14:45:00,89.7,68.0,30.31,WNW,290,5.9,6.8,49,-99.99,,,-99.99,VWS V14.01,2013-07-16 18:45:00,
2013-07-16 14:46:00,89.8,68.0,30.31,WNW,285,4.7,8.7,49,-99.99,,,-99.99,VWS V14.01,2013-07-16 18:46:00,
2013-07-16 14:47:00,89.8,68.1,30.31,NNW,345,0.0,5.4,49,-99.99,,,-99.99,VWS V14.01,2013-07-16 18:47:00,
2013-07-16 14:48:00,89.9,68.0,30.31,NNW,345,0.0,0.0,49,-99.99,,,-99.99,VWS V14.01,2013-07-16 18:48:00,
2013-07-16 14:49:00,89.9,68.3,30.31,WSW,246,4.4,4.4,49,-99.99,,,-99.99,VWS V14.01,2013-07-16 18:49:00,
2013-07-16 14:50:00,89.8,68.1,30.31,WNW,302,4.2,5.7,49,-99.99,,,-99.99,VWS V14.01,2013-07-16 18:50:00,
2013-07-16 14:51:00,89.9,68.1,30.30,NNW,328,4.7,4.8,49,-99.99,,,-99.99,VWS V14.01,2013-07-16 18:51:00,
2013-07-16 14:52:00,89.9,67.9,30.30,WNW,285,0.0,7.5,48,-99.99,,,-99.99,VWS V14.01,2013-07-16 18:52:00,
2013-07-16 14:53:00,89.9,67.5,30.30,North,359,5.0,7.4,48,-99.99,,,-99.99,VWS V14.01,2013-07-16 18:53:00,
2013-07-16 14:54:00,89.9,67.4,30.30,NW,308,0.0,0.0,48,-99.99,,,-99.99,VWS V14.01,2013-07-16 18:54:00,
2013-07-16 14:55:00,90.0,67.8,30.30,West,266,3.4,6.8,48,-99.99,,,-99.99,VWS V14.01,2013-07-16 18:55:00,
2013-07-16 14:56:00,90.1,68.0,30.31,WSW,240,4.3,6.6,48,-99.99,,,-99.99,VWS V14.01,2013-07-16 18:56:00,
2013-07-16 14:57:00,90.2,67.6,30.31,WNW,291,0.0,6.0,48,-99.99,,,-99.99,VWS V14.01,2013-07-16 18:57:00,
2013-07-16 14:58:00,90.2,67.9,30.30,WNW,291,0.0,5.1,48,-99.99,,,-99.99,VWS V14.01,2013-07-16 18:58:00,
2013-07-16 14:59:00,90.3,68.2,30.31,NW,326,4.2,4.2,48,-99.99,,,-99.99,VWS V14.01,2013-07-16 18:59:00,
2013-07-16 15:00:00,90.2,67.9,30.30,WNW,302,5.4,5.4,48,-99.99,,,-99.99,VWS V14.01,2013-07-16 19:00:00,
2013-07-16 15:01:00,90.3,68.3,30.30,NW,307,5.0,7.1,48,-99.99,,,-99.99,VWS V14.01,2013-07-16 19:01:00,
2013-07-16 15:02:00,90.3,68.1,30.30,NW,323,0.0,5.0,48,-99.99,,,-99.99,VWS V14.01,2013-07-16 19:02:00,
2013-07-16 15:03:00,90.2,68.1,30.30,NNW,333,4.6,7.0,48,-99.99,,,-99.99,VWS V14.01,2013-07-16 19:03:00,
2013-07-16 15:04:00,90.2,68.0,30.30,NNW,338,3.3,6.1,48,-99.99,,,-99.99,VWS V14.01,2013-07-16 19:04:00,
2013-07-16 15:05:00,90.2,67.6,30.30,WSW,238,0.0,6.1,48,-99.99,,,-99.99,VWS V14.01,2013-07-16 19:05:00,
2013-07-16 15:06:00,90.3,68.1,30.30,WNW,285,5.2,6.8,48,-99.99,,,-99.99,VWS V14.01,2013-07-16 19:06:00,
2013-07-16 15:07:00,90.3,68.0,30.30,NW,311,0.0,5.2,48,-99.99,,,-99.99,VWS V14.01,2013-07-16 19:07:00,
2013-07-16 15:08:00,90.4,68.2,30.30,NW,311,0.0,3.2,48,-99.99,,,-99.99,VWS V14.01,2013-07-16 19:08:00,
2013-07-16 15:09:00,90.4,68.1,30.30,NW,326,0.0,0.0,48,-99.99,,,-99.99,VWS V14.01,2013-07-16 19:09:00,
2013-07-16 15:10:00,90.5,68.2,30.30,WNW,292,2.1,4.3,48,-99.99,,,-99.99,VWS V14.01,2013-07-16 19:10:00,
2013-07-16 15:11:00,90.4,67.7,30.30,WNW,298,2.5,4.8,47,-99.99,,,-99.99,VWS V14.01,2013-07-16 19:11:00,
2013-07-16 15:12:00,90.4,67.5,30.30,WNW,298,0.0,2.5,47,-99.99,,,-99.99,VWS V14.01,2013-07-16 19:12:00,
2013-07-16 15:13:00,90.4,68.2,30.30,NW,308,4.8,6.8,48,-99.99,,,-99.99,VWS V14.01,2013-07-16 19:13:00,
2013-07-16 15:14:00,90.3,67.7,30.30,West,260,0.0,0.0,48,-99.99,,,-99.99,VWS V14.01,2013-07-16 19:14:00,
2013-07-16 15:15:00,90.4,67.5,30.30,West,260,0.0,0.0,47,-99.99,,,-99.99,VWS V14.01,2013-07-16 19:15:00,
2013-07-16 15:16:00,90.3,67.8,30.30,West,260,0.0,0.0,48,-99.99,,,-99.99,VWS V14.01,2013-07-16 19:16:00,
2013-07-16 15:17:00,90.4,68.3,30.30,West,260,0.0,0.0,48,-99.99,,,-99.99,VWS V14.01,2013-07-16 19:17:00,
2013-07-16 15:18:00,90.3,68.4,30.30,NNW,343,0.0,8.3,49,-99.99,,,-99.99,VWS V14.01,2013-07-16 19:18:00,
2013-07-16 15:19:00,90.5,68.4,30.30,WSW,257,0.0,0.0,48,-99.99,,,-99.99,VWS V14.01,2013-07-16 19:19:00,
2013-07-16 15:20:00,90.4,68.4,30.30,WSW,253,5.6,8.1,49,-99.99,,,-99.99,VWS V14.01,2013-07-16 19:20:00,
2013-07-16 15:21:00,90.6,68.2,30.30,North,4,0.0,6.5,48,-99.99,,,-99.99,VWS V14.01,2013-07-16 19:21:00,
2013-07-16 15:22:00,90.5,67.8,30.30,North,4,0.0,0.0,47,-99.99,,,-99.99,VWS V14.01,2013-07-16 19:22:00,
2013-07-16 15:23:00,90.6,67.9,30.30,West,281,3.2,5.8,47,-99.99,,,-99.99,VWS V14.01,2013-07-16 19:23:00,
2013-07-16 15:24:00,90.6,67.9,30.30,NNW,345,6.8,8.0,47,-99.99,,,-99.99,VWS V14.01,2013-07-16 19:24:00,
2013-07-16 15:25:00,90.7,68.0,30.30,NW,307,4.6,7.2,48,-99.99,,,-99.99,VWS V14.01,2013-07-16 19:25:00,
2013-07-16 15:26:00,90.7,67.4,30.30,WNW,284,3.4,6.2,46,-99.99,,,-99.99,VWS V14.01,2013-07-16 19:26:00,
2013-07-16 15:27:00,90.6,67.4,30.30,NW,316,3.5,4.2,47,-99.99,,,-99.99,VWS V14.01,2013-07-16 19:27:00,
2013-07-16 15:28:00,90.7,67.6,30.30,WSW,250,0.0,8.7,47,-99.99,,,-99.99,VWS V14.01,2013-07-16 19:28:00,
2013-07-16 15:29:00,90.7,67.5,30.30,SSW,212,0.0,5.7,47,-99.99,,,-99.99,VWS V14.01,2013-07-16 19:29:00,
2013-07-16 15:30:00,90.7,68.0,30.30,West,267,2.3,5.0,48,-99.99,,,-99.99,VWS V14.01,2013-07-16 19:30:00,
2013-07-16 15:31:00,90.7,68.3,30.30,West,262,1.7,3.3,48,-99.99,,,-99.99,VWS V14.01,2013-07-16 19:31:00,
2013-07-16 15:32:00,90.8,68.2,30.29,WSW,238,0.0,7.0,48,-99.99,,,-99.99,VWS V14.01,2013-07-16 19:32:00,
2013-07-16 15:33:00,90.8,67.6,30.29,WNW,292,0.0,6.8,47,-99.99,,,-99.99,VWS V14.01,2013-07-16 19:33:00,
2013-07-16 15:34:00,90.7,68.0,30.29,NW,319,4.6,6.6,47,-99.99,,,-99.99,VWS V14.01,2013-07-16 19:34:00,
2013-07-16 15:35:00,90.7,67.9,30.29,NW,315,4.2,4.2,47,-99.99,,,-99.99,VWS V14.01,2013-07-16 19:35:00,
2013-07-16 15:36:00,90.7,68.0,30.29,NW,304,4.6,5.3,47,-99.99,,,-99.99,VWS V14.01,2013-07-16 19:36:00,
2013-07-16 15:37:00,90.6,67.1,30.29,WNW,294,7.6,8.0,46,-99.99,,,-99.99,VWS V14.01,2013-07-16 19:37:00,
2013-07-16 15:38:00,90.7,67.0,30.29,WNW,298,6.6,7.6,46,-99.99,,,-99.99,VWS V14.01,2013-07-16 19:38:00,
2013-07-16 15:39:00,90.5,66.5,30.29,SW,217,5.7,8.6,45,-99.99,,,-99.99,VWS V14.01,2013-07-16 19:39:00,
2013-07-16 15:40:00,90.7,67.2,30.29,NW,315,4.4,4.9,46,-99.99,,,-99.99,VWS V14.01,2013-07-16 19:40:00,
2013-07-16 15:41:00,90.6,67.1,30.29,NW,312,4.3,6.0,46,-99.99,,,-99.99,VWS V14.01,2013-07-16 19:41:00,
2013-07-16 15:42:00,90.6,66.8,30.29,West,262,3.5,6.8,46,-99.99,,,-99.99,VWS V14.01,2013-07-16 19:42:00,
2013-07-16 15:43:00,90.6,67.4,30.29,NNW,336,5.5,7.6,47,-99.99,,,-99.99,VWS V14.01,2013-07-16 19:43:00,
2013-07-16 15:44:00,90.7,67.0,30.29,NNW,328,5.5,6.9,46,-99.99,,,-99.99,VWS V14.01,2013-07-16 19:44:00,
2013-07-16 15:45:00,90.6,67.1,30.29,WNW,297,4.2,7.3,46,-99.99,,,-99.99,VWS V14.01,2013-07-16 19:45:00,
2013-07-16 15:46:00,90.6,67.2,30.29,West,259,6.2,8.5,46,-99.99,,,-99.99,VWS V14.01,2013-07-16 19:46:00,
2013-07-16 15:47:00,90.6,66.7,30.29,West,264,2.7,8.7,46,-99.99,,,-99.99,VWS V14.01,2013-07-16 19:47:00,
2013-07-16 15:48:00,90.6,66.6,30.29,NW,312,6.5,6.5,45,-99.99,,,-99.99,VWS V14.01,2013-07-16 19:48:00,
2013-07-16 15:49:00,90.6,66.9,30.29,West,273,4.4,8.4,46,-99.99,,,-99.99,VWS V14.01,2013-07-16 19:49:00,
2013-07-16 15:50:00,90.6,67.0,30.29,NW,312,8.3,8.3,46,-99.99,,,-99.99,VWS V14.01,2013-07-16 19:50:00,
2013-07-16 15:51:00,90.6,66.9,30.29,NW,307,3.5,8.3,46,-99.99,,,-99.99,VWS V14.01,2013-07-16 19:51:00,
2013-07-16 15:52:00,90.6,66.8,30.28,NW,322,5.0,6.2,46,-99.99,,,-99.99,VWS V14.01,2013-07-16 19:52:00,
2013-07-16 15:53:00,90.5,66.8,30.28,SSW,205,3.1,7.3,46,-99.99,,,-99.99,VWS V14.01,2013-07-16 19:53:00,
2013-07-16 15:54:00,90.5,67.0,30.28,WNW,300,7.0,8.0,46,-99.99,,,-99.99,VWS V14.01,2013-07-16 19:54:00,
2013-07-16 15:55:00,90.5,66.9,30.28,West,281,2.9,7.5,46,-99.99,,,-99.99,VWS V14.01,2013-07-16 19:55:00,
2013-07-16 15:56:00,90.4,66.9,30.28,NW,311,5.9,8.1,46,-99.99,,,-99.99,VWS V14.01,2013-07-16 19:56:00,
2013-07-16 15:57:00,90.5,67.0,30.28,North,359,7.0,9.5,46,-99.99,,,-99.99,VWS V14.01,2013-07-16 19:57:00,
2013-07-16 15:58:00,90.5,67.2,30.28,NW,312,5.7,9.3,46,-99.99,,,-99.99,VWS V14.01,2013-07-16 19:58:00,
2013-07-16 15:59:00,90.4,66.8,30.28,WNW,301,4.2,7.5,46,-99.99,,,-99.99,VWS V14.01,2013-07-16 19:59:00,
2013-07-16 16:00:00,90.4,66.6,30.28,NW,305,7.6,7.9,46,-99.99,,,-99.99,VWS V14.01,2013-07-16 20:00:00,
2013-07-16 16:01:00,90.4,66.4,30.28,NNW,335,4.3,8.7,45,-99.99,,,-99.99,VWS V14.01,2013-07-16 20:01:00,
2013-07-16 16:02:00,90.3,66.7,30.28,NNW,336,0.0,4.3,46,-99.99,,,-99.99,VWS V14.01,2013-07-16 20:02:00,
2013-07-16 16:03:00,90.4,66.9,30.28,SW,226,5.2,8.1,46,-99.99,,,-99.99,VWS V14.01,2013-07-16 20:03:00,
2013-07-16 16:04:00,90.4,66.9,30.28,SW,222,3.5,8.1,46,-99.99,,,-99.99,VWS V14.01,2013-07-16 20:04:00,
2013-07-16 16:05:00,90.3,66.9,30.28,SW,222,0.0,3.5,46,-99.99,,,-99.99,VWS V14.01,2013-07-16 20:05:00,
2013-07-16 16:06:00,90.3,66.9,30.28,SW,222,0.0,0.0,46,-99.99,,,-99.99,VWS V14.01,2013-07-16 20:06:00,
2013-07-16 16:07:00,90.3,67.0,30.28,WSW,252,5.0,7.9,46,-99.99,,,-99.99,VWS V14.01,2013-07-16 20:07:00,
2013-07-16 16:08:00,90.4,66.8,30.29,WNW,294,0.0,8.3,46,-99.99,,,-99.99,VWS V14.01,2013-07-16 20:08:00,
2013-07-16 16:09:00,90.4,66.8,30.29,WNW,294,0.0,8.3,46,-99.99,,,-99.99,VWS V14.01,2013-07-16 20:09:00,
2013-07-16 16:10:00,90.3,66.6,30.29,WNW,294,0.0,0.0,46,-99.99,,,-99.99,VWS V14.01,2013-07-16 20:10:00,
2013-07-16 16:11:00,90.4,66.7,30.29,WNW,294,0.0,5.2,46,-99.99,,,-99.99,VWS V14.01,2013-07-16 20:11:00,
2013-07-16 16:12:00,90.3,66.5,30.29,NNW,332,0.0,6.8,46,-99.99,,,-99.99,VWS V14.01,2013-07-16 20:12:00,
2013-07-16 16:13:00,90.3,66.6,30.29,WNW,288,0.0,0.0,46,-99.99,,,-99.99,VWS V14.01,2013-07-16 20:13:00,
2013-07-16 16:14:00,90.3,66.6,30.29,WNW,288,0.0,0.0,46,-99.99,,,-99.99,VWS V14.01,2013-07-16 20:14:00,
2013-07-16 16:15:00,90.4,67.3,30.29,West,274,4.6,8.1,47,-99.99,,,-99.99,VWS V14.01,2013-07-16 20:15:00,
2013-07-16 16:16:00,90.3,66.3,30.29,WNW,302,0.0,4.6,45,-99.99,,,-99.99,VWS V14.01,2013-07-16 20:16:00,
2013-07-16 16:17:00,90.3,67.0,30.29,NW,304,0.0,4.2,46,-99.99,,,-99.99,VWS V14.01,2013-07-16 20:17:00,
2013-07-16 16:18:00,90.3,67.0,30.29,NW,322,3.2,8.1,46,-99.99,,,-99.99,VWS V14.01,2013-07-16 20:18:00,
2013-07-16 16:19:00,90.1,66.9,30.29,West,271,6.3,8.1,46,-99.99,,,-99.99,VWS V14.01,2013-07-16 20:19:00,
2013-07-16 16:20:00,90.2,66.4,30.29,NW,305,0.0,8.6,46,-99.99,,,-99.99,VWS V14.01,2013-07-16 20:20:00,
2013-07-16 16:21:00,90.0,66.3,30.29,NW,305,0.0,4.6,46,-99.99,,,-99.99,VWS V14.01,2013-07-16 20:21:00,
2013-07-16 16:22:00,90.1,66.5,30.29,North,359,4.7,9.8,46,-99.99,,,-99.99,VWS V14.01,2013-07-16 20:22:00,
2013-07-16 16:23:00,90.0,66.3,30.29,WNW,285,0.0,4.5,46,-99.99,,,-99.99,VWS V14.01,2013-07-16 20:23:00,
2013-07-16 16:24:00,89.9,66.3,30.29,WNW,285,0.0,4.5,46,-99.99,,,-99.99,VWS V14.01,2013-07-16 20:24:00,
2013-07-16 16:25:00,90.2,66.6,30.29,North,349,5.0,7.8,46,-99.99,,,-99.99,VWS V14.01,2013-07-16 20:25:00,
2013-07-16 16:26:00,90.2,66.3,30.29,WNW,298,0.0,7.0,46,-99.99,,,-99.99,VWS V14.01,2013-07-16 20:26:00,
2013-07-16 16:27:00,90.1,66.2,30.29,NW,311,5.5,6.4,45,-99.99,,,-99.99,VWS V14.01,2013-07-16 20:27:00,
2013-07-16 16:28:00,90.2,66.8,30.29,NNW,340,0.0,6.5,46,-99.99,,,-99.99,VWS V14.01,2013-07-16 20:28:00,
2013-07-16 16:29:00,90.3,66.9,30.29,WNW,300,3.4,6.5,46,-99.99,,,-99.99,VWS V14.01,2013-07-16 20:29:00,
2013-07-16 16:30:00,90.3,66.7,30.29,WNW,300,2.5,3.4,46,-99.99,,,-99.99,VWS V14.01,2013-07-16 20:30:00,
2013-07-16 16:31:00,90.2,66.6,30.29,North,353,7.7,7.7,46,-99.99,,,-99.99,VWS V14.01,2013-07-16 20:31:00,
2013-07-16 16:32:00,90.2,66.2,30.29,North,3,7.5,9.6,45,-99.99,,,-99.99,VWS V14.01,2013-07-16 20:32:00,
2013-07-16 16:33:00,90.3,66.3,30.29,WSW,245,0.0,6.7,45,-99.99,,,-99.99,VWS V14.01,2013-07-16 20:33:00,
2013-07-16 16:34:00,90.3,66.4,30.29,WSW,245,0.0,6.7,46,-99.99,,,-99.99,VWS V14.01,2013-07-16 20:34:00,
2013-07-16 16:35:00,90.3,66.2,30.29,WSW,245,0.0,0.0,45,-99.99,,,-99.99,VWS V14.01,2013-07-16 20:35:00,
2013-07-16 16:36:00,90.2,66.5,30.29,North,349,7.9,7.9,46,-99.99,,,-99.99,VWS V14.01,2013-07-16 20:36:00,
2013-07-16 16:37:00,90.3,66.2,30.29,SW,218,0.0,7.9,45,-99.99,,,-99.99,VWS V14.01,2013-07-16 20:37:00,
2013-07-16 16:38:00,90.3,66.2,30.29,WNW,300,4.8,7.0,45,-99.99,,,-99.99,VWS V14.01,2013-07-16 20:38:00,
2013-07-16 16:39:00,90.3,66.4,30.29,NW,305,3.0,7.0,46,-99.99,,,-99.99,VWS V14.01,2013-07-16 20:39:00,
2013-07-16 16:40:00,90.3,66.3,30.29,NNW,339,4.9,10.6,45,-99.99,,,-99.99,VWS V14.01,2013-07-16 20:40:00,
2013-07-16 16:41:00,90.4,66.1,30.29,NNW,328,5.5,6.3,45,-99.99,,,-99.99,VWS V14.01,2013-07-16 20:41:00,
2013-07-16 16:42:00,90.4,66.2,30.29,West,280,0.0,5.5,45,-99.99,,,-99.99,VWS V14.01,2013-07-16 20:42:00,
2013-07-16 16:43:00,90.4,66.5,30.29,West,271,3.4,6.6,46,-99.99,,,-99.99,VWS V14.01,2013-07-16 20:43:00,
2013-07-16 16:44:00,90.5,66.6,30.29,West,271,0.0,6.6,46,-99.99,,,-99.99,VWS V14.01,2013-07-16 20:44:00,
2013-07-16 16:45:00,90.4,66.0,30.29,NW,308,0.0,2.0,45,-99.99,,,-99.99,VWS V14.01,2013-07-16 20:45:00,
2013-07-16 16:46:00,90.4,66.5,30.29,SW,229,1.6,6.2,46,-99.99,,,-99.99,VWS V14.01,2013-07-16 20:46:00,
2013-07-16 16:47:00,90.4,66.7,30.30,NNW,329,6.6,6.6,46,-99.99,,,-99.99,VWS V14.01,2013-07-16 20:47:00,
2013-07-16 16:48:00,90.5,66.3,30.29,NW,308,0.0,5.9,45,-99.99,,,-99.99,VWS V14.01,2013-07-16 20:48:00,
2013-07-16 16:49:00,90.4,66.1,30.29,NW,308,0.0,5.9,45,-99.99,,,-99.99,VWS V14.01,2013-07-16 20:49:00,
2013-07-16 16:50:00,90.5,66.2,30.30,NW,323,0.0,5.3,45,-99.99,,,-99.99,VWS V14.01,2013-07-16 20:50:00,
2013-07-16 16:51:00,90.4,66.4,30.29,NW,323,0.0,0.0,45,-99.99,,,-99.99,VWS V14.01,2013-07-16 20:51:00,
2013-07-16 16:52:00,90.4,66.7,30.29,NW,307,3.1,3.2,46,-99.99,,,-99.99,VWS V14.01,2013-07-16 20:52:00,
2013-07-16 16:53:00,90.5,66.8,30.30,WSW,240,4.2,5.7,46,-99.99,,,-99.99,VWS V14.01,2013-07-16 20:53:00,
2013-07-16 16:54:00,90.5,66.8,30.30,West,260,3.5,5.7,46,-99.99,,,-99.99,VWS V14.01,2013-07-16 20:54:00,
2013-07-16 16:55:00,90.5,67.0,30.29,WNW,294,4.7,6.1,46,-99.99,,,-99.99,VWS V14.01,2013-07-16 20:55:00,
2013-07-16 16:56:00,90.5,67.0,30.29,NNW,333,0.0,6.2,46,-99.99,,,-99.99,VWS V14.01,2013-07-16 20:56:00,
2013-07-16 16:57:00,90.3,66.2,30.29,NW,326,3.4,3.5,45,-99.99,,,-99.99,VWS V14.01,2013-07-16 20:57:00,
2013-07-16 16:58:00,90.1,66.7,30.29,NW,322,0.0,0.0,46,-99.99,,,-99.99,VWS V14.01,2013-07-16 20:58:00,
2013-07-16 16:59:00,90.3,66.9,30.29,West,277,6.3,7.3,46,-99.99,,,-99.99,VWS V14.01,2013-07-16 20:59:00,
2013-07-16 17:00:00,89.9,66.6,30.30,West,271,0.0,6.3,46,-99.99,,,-99.99,VWS V14.01,2013-07-16 21:00:00,
2013-07-16 17:01:00,89.8,66.7,30.30,WNW,300,3.5,7.1,47,-99.99,,,-99.99,VWS V14.01,2013-07-16 21:01:00,
2013-07-16 17:02:00,89.7,67.0,30.30,WNW,292,3.2,10.4,47,-99.99,,,-99.99,VWS V14.01,2013-07-16 21:02:00,
2013-07-16 17:03:00,89.7,67.1,30.30,NW,304,5.8,8.9,47,-99.99,,,-99.99,VWS V14.01,2013-07-16 21:03:00,
2013-07-16 17:04:00,89.7,67.1,30.30,WSW,249,3.4,8.9,48,-99.99,,,-99.99,VWS V14.01,2013-07-16 21:04:00,
2013-07-16 17:05:00,89.6,67.0,30.30,WSW,249,0.0,3.4,48,-99.99,,,-99.99,VWS V14.01,2013-07-16 21:05:00,
2013-07-16 17:06:00,89.7,67.0,30.30,NNW,328,2.9,3.1,47,-99.99,,,-99.99,VWS V14.01,2013-07-16 21:06:00,
2013-07-16 17:07:00,89.6,67.0,30.30,NNW,328,0.0,2.9,48,-99.99,,,-99.99,VWS V14.01,2013-07-16 21:07:00,
2013-07-16 17:08:00,89.5,66.9,30.30,NW,325,0.0,3.4,47,-99.99,,,-99.99,VWS V14.01,2013-07-16 21:08:00,
2013-07-16 17:09:00,89.5,66.9,30.30,NW,325,0.0,3.4,47,-99.99,,,-99.99,VWS V14.01,2013-07-16 21:09:00,
2013-07-16 17:10:00,89.6,67.2,30.30,WSW,256,4.7,4.7,48,-99.99,,,-99.99,VWS V14.01,2013-07-16 21:10:00,
2013-07-16 17:11:00,89.6,67.3,30.29,WNW,295,4.7,5.2,48,-99.99,,,-99.99,VWS V14.01,2013-07-16 21:11:00,
2013-07-16 17:12:00,89.7,67.5,30.30,NNW,329,3.5,5.0,48,-99.99,,,-99.99,VWS V14.01,2013-07-16 21:12:00,
2013-07-16 17:13:00,89.7,67.5,30.29,WNW,291,0.0,2.6,48,-99.99,,,-99.99,VWS V14.01,2013-07-16 21:13:00,
2013-07-16 17:14:00,89.7,67.4,30.29,WNW,291,0.0,2.6,48,-99.99,,,-99.99,VWS V14.01,2013-07-16 21:14:00,
2013-07-16 17:15:00,89.7,67.7,30.29,North,8,4.8,5.0,48,-99.99,,,-99.99,VWS V14.01,2013-07-16 21:15:00,
2013-07-16 17:16:00,89.8,67.5,30.29,WNW,291,0.0,4.8,48,-99.99,,,-99.99,VWS V14.01,2013-07-16 21:16:00,
2013-07-16 17:17:00,89.8,67.3,30.29,WNW,291,0.0,0.0,48,-99.99,,,-99.99,VWS V14.01,2013-07-16 21:17:00,
2013-07-16 17:18:00,89.8,67.4,30.29,WNW,291,0.0,3.0,48,-99.99,,,-99.99,VWS V14.01,2013-07-16 21:18:00,
2013-07-16 17:19:00,89.8,67.4,30.29,WNW,291,0.0,3.0,48,-99.99,,,-99.99,VWS V14.01,2013-07-16 21:19:00,
2013-07-16 17:20:00,89.7,67.4,30.29,WNW,291,0.0,0.0,48,-99.99,,,-99.99,VWS V14.01,2013-07-16 21:20:00,
2013-07-16 17:21:00,89.8,67.6,30.29,WNW,301,0.0,3.2,48,-99.99,,,-99.99,VWS V14.01,2013-07-16 21:21:00,
2013-07-16 17:22:00,89.9,67.6,30.29,WNW,301,0.0,0.0,48,-99.99,,,-99.99,VWS V14.01,2013-07-16 21:22:00,
2013-07-16 17:23:00,89.8,67.4,30.29,WSW,242,0.0,0.0,48,-99.99,,,-99.99,VWS V14.01,2013-07-16 21:23:00,
2013-07-16 17:24:00,89.7,67.4,30.29,WSW,242,0.0,0.0,48,-99.99,,,-99.99,VWS V14.01,2013-07-16 21:24:00,
2013-07-16 17:25:00,89.7,67.5,30.28,SW,228,0.0,3.4,48,-99.99,,,-99.99,VWS V14.01,2013-07-16 21:25:00,
2013-07-16 17:26:00,89.8,67.5,30.28,SW,228,0.0,0.0,48,-99.99,,,-99.99,VWS V14.01,2013-07-16 21:26:00,
2013-07-16 17:27:00,89.8,67.9,30.29,SW,228,0.0,0.0,49,-99.99,,,-99.99,VWS V14.01,2013-07-16 21:27:00,
2013-07-16 17:28:00,89.7,67.5,30.29,WSW,253,4.6,5.8,48,-99.99,,,-99.99,VWS V14.01,2013-07-16 21:28:00,
2013-07-16 17:29:00,89.8,67.8,30.29,NW,309,0.0,5.8,48,-99.99,,,-99.99,VWS V14.01,2013-07-16 21:29:00,
2013-07-16 17:30:00,89.8,67.8,30.29,West,267,0.0,5.5,48,-99.99,,,-99.99,VWS V14.01,2013-07-16 21:30:00,
2013-07-16 17:31:00,89.8,67.8,30.29,WNW,285,0.0,6.5,48,-99.99,,,-99.99,VWS V14.01,2013-07-16 21:31:00,
2013-07-16 17:32:00,89.7,67.7,30.29,West,263,0.0,3.0,48,-99.99,,,-99.99,VWS V14.01,2013-07-16 21:32:00,
2013-07-16 17:33:00,89.7,67.8,30.29,NW,316,5.2,7.5,49,-99.99,,,-99.99,VWS V14.01,2013-07-16 21:33:00,
2013-07-16 17:34:00,89.8,67.8,30.29,West,273,3.0,7.5,48,-99.99,,,-99.99,VWS V14.01,2013-07-16 21:34:00,
2013-07-16 17:35:00,89.7,67.6,30.28,WNW,292,0.0,3.5,48,-99.99,,,-99.99,VWS V14.01,2013-07-16 21:35:00,
2013-07-16 17:36:00,89.7,67.1,30.29,WNW,292,0.0,0.0,47,-99.99,,,-99.99,VWS V14.01,2013-07-16 21:36:00,
2013-07-16 17:37:00,89.6,67.3,30.28,WNW,292,0.0,0.0,48,-99.99,,,-99.99,VWS V14.01,2013-07-16 21:37:00,
2013-07-16 17:38:00,89.6,67.3,30.28,WNW,292,0.0,0.0,48,-99.99,,,-99.99,VWS V14.01,2013-07-16 21:38:00,
2013-07-16 17:39:00,89.6,67.4,30.28,WNW,292,0.0,0.0,48,-99.99,,,-99.99,VWS V14.01,2013-07-16 21:39:00,
2013-07-16 17:40:00,89.6,67.6,30.28,WNW,292,0.0,0.0,48,-99.99,,,-99.99,VWS V14.01,2013-07-16 21:40:00,
2013-07-16 17:41:00,89.6,68.0,30.28,WNW,292,0.0,0.0,49,-99.99,,,-99.99,VWS V14.01,2013-07-16 21:41:00,
2013-07-16 17:42:00,89.4,68.2,30.28,WNW,292,0.0,0.0,50,-99.99,,,-99.99,VWS V14.01,2013-07-16 21:42:00,
2013-07-16 17:43:00,89.4,68.2,30.28,North,0,0.0,5.3,50,-99.99,,,-99.99,VWS V14.01,2013-07-16 21:43:00,
2013-07-16 17:44:00,89.4,68.1,30.28,North,0,0.0,5.3,50,-99.99,,,-99.99,VWS V14.01,2013-07-16 21:44:00,
2013-07-16 17:45:00,89.4,67.7,30.28,North,0,3.1,3.1,49,-99.99,,,-99.99,VWS V14.01,2013-07-16 21:45:00,
2013-07-16 17:46:00,89.3,67.9,30.28,WNW,301,0.0,6.5,50,-99.99,,,-99.99,VWS V14.01,2013-07-16 21:46:00,
2013-07-16 17:47:00,89.2,67.5,30.28,WNW,301,0.0,0.0,49,-99.99,,,-99.99,VWS V14.01,2013-07-16 21:47:00,
2013-07-16 17:48:00,89.3,68.1,30.28,NNW,333,0.0,2.8,50,-99.99,,,-99.99,VWS V14.01,2013-07-16 21:48:00,
2013-07-16 17:49:00,89.0,67.9,30.28,SSW,193,3.2,5.5,50,-99.99,,,-99.99,VWS V14.01,2013-07-16 21:49:00,
2013-07-16 17:50:00,89.0,67.6,30.28,SW,228,0.0,3.2,49,-99.99,,,-99.99,VWS V14.01,2013-07-16 21:50:00,
2013-07-16 17:51:00,89.1,67.9,30.28,West,281,0.0,6.5,50,-99.99,,,-99.99,VWS V14.01,2013-07-16 21:51:00,
2013-07-16 17:52:00,88.8,67.8,30.28,WSW,249,0.0,4.3,50,-99.99,,,-99.99,VWS V14.01,2013-07-16 21:52:00,
2013-07-16 17:53:00,88.8,67.3,30.28,WSW,249,0.0,0.0,49,-99.99,,,-99.99,VWS V14.01,2013-07-16 21:53:00,
2013-07-16 17:54:00,88.8,67.4,30.28,WSW,249,0.0,0.0,49,-99.99,,,-99.99,VWS V14.01,2013-07-16 21:54:00,
2013-07-16 17:55:00,88.9,67.8,30.28,WSW,240,2.5,2.5,50,-99.99,,,-99.99,VWS V14.01,2013-07-16 21:55:00,
2013-07-16 17:56:00,88.8,68.1,30.28,WNW,302,5.7,6.6,50,-99.99,,,-99.99,VWS V14.01,2013-07-16 21:56:00,
2013-07-16 17:57:00,88.8,68.1,30.28,NNW,347,1.9,6.8,50,-99.99,,,-99.99,VWS V14.01,2013-07-16 21:57:00,
2013-07-16 17:58:00,88.9,68.0,30.29,NW,316,3.2,4.8,50,-99.99,,,-99.99,VWS V14.01,2013-07-16 21:58:00,
2013-07-16 17:59:00,88.8,68.0,30.29,NW,316,0.0,4.8,50,-99.99,,,-99.99,VWS V14.01,2013-07-16 21:59:00,
2013-07-16 18:00:00,88.8,68.1,30.28,NW,316,0.0,0.0,51,-99.99,,,-99.99,VWS V14.01,2013-07-16 22:00:00,
2013-07-16 18:01:00,88.8,68.1,30.29,NW,316,0.0,0.0,51,-99.99,,,-99.99,VWS V14.01,2013-07-16 22:01:00,
2013-07-16 18:02:00,88.8,68.1,30.28,NW,316,0.0,0.0,50,-99.99,,,-99.99,VWS V14.01,2013-07-16 22:02:00,
2013-07-16 18:03:00,88.9,68.4,30.29,WSW,243,2.9,2.9,51,-99.99,,,-99.99,VWS V14.01,2013-07-16 22:03:00,
2013-07-16 18:04:00,88.9,68.4,30.29,WSW,243,0.0,2.9,51,-99.99,,,-99.99,VWS V14.01,2013-07-16 22:04:00,
2013-07-16 18:05:00,88.9,68.3,30.28,WSW,243,0.0,0.0,51,-99.99,,,-99.99,VWS V14.01,2013-07-16 22:05:00,
2013-07-16 18:06:00,88.8,68.2,30.28,WSW,243,0.0,0.0,51,-99.99,,,-99.99,VWS V14.01,2013-07-16 22:06:00,
2013-07-16 18:07:00,88.8,68.1,30.28,SW,224,2.4,2.4,50,-99.99,,,-99.99,VWS V14.01,2013-07-16 22:07:00,
2013-07-16 18:08:00,88.8,68.2,30.28,SW,224,0.0,0.0,51,-99.99,,,-99.99,VWS V14.01,2013-07-16 22:08:00,
2013-07-16 18:09:00,88.8,68.3,30.28,SW,224,0.0,0.0,51,-99.99,,,-99.99,VWS V14.01,2013-07-16 22:09:00,
2013-07-16 18:10:00,88.8,68.1,30.28,WSW,246,2.9,2.9,50,-99.99,,,-99.99,VWS V14.01,2013-07-16 22:10:00,
2013-07-16 18:11:00,88.7,68.0,30.28,WSW,246,0.0,2.9,50,-99.99,,,-99.99,VWS V14.01,2013-07-16 22:11:00,
2013-07-16 18:12:00,88.7,67.8,30.28,NW,312,0.0,6.2,50,-99.99,,,-99.99,VWS V14.01,2013-07-16 22:12:00,
2013-07-16 18:13:00,88.7,68.0,30.28,NNW,333,0.0,3.0,51,-99.99,,,-99.99,VWS V14.01,2013-07-16 22:13:00,
2013-07-16 18:14:00,88.7,68.0,30.28,NNW,333,0.0,3.0,51,-99.99,,,-99.99,VWS V14.01,2013-07-16 22:14:00,
2013-07-16 18:15:00,88.7,67.9,30.28,NNW,333,0.0,0.0,50,-99.99,,,-99.99,VWS V14.01,2013-07-16 22:15:00,
2013-07-16 18:16:00,88.7,68.2,30.28,NW,311,0.0,1.2,51,-99.99,,,-99.99,VWS V14.01,2013-07-16 22:16:00,
2013-07-16 18:17:00,88.8,68.3,30.28,NW,311,0.0,0.0,51,-99.99,,,-99.99,VWS V14.01,2013-07-16 22:17:00,
2013-07-16 18:18:00,88.7,68.5,30.28,WSW,250,0.0,0.0,51,-99.99,,,-99.99,VWS V14.01,2013-07-16 22:18:00,
2013-07-16 18:19:00,88.7,68.4,30.28,WSW,250,0.0,0.0,51,-99.99,,,-99.99,VWS V14.01,2013-07-16 22:19:00,
2013-07-16 18:20:00,88.7,68.2,30.28,WSW,250,0.0,0.0,51,-99.99,,,-99.99,VWS V14.01,2013-07-16 22:20:00,
2013-07-16 18:21:00,88.7,68.9,30.28,WSW,250,0.0,0.0,52,-99.99,,,-99.99,VWS V14.01,2013-07-16 22:21:00,
2013-07-16 18:22:00,88.6,68.6,30.28,WSW,250,0.0,0.0,52,-99.99,,,-99.99,VWS V14.01,2013-07-16 22:22:00,
2013-07-16 18:23:00,88.6,68.5,30.28,WSW,250,0.0,0.0,52,-99.99,,,-99.99,VWS V14.01,2013-07-16 22:23:00,
2013-07-16 18:24:00,88.6,68.3,30.28,WSW,250,0.0,0.0,51,-99.99,,,-99.99,VWS V14.01,2013-07-16 22:24:00,
2013-07-16 18:25:00,88.5,68.2,30.28,WSW,250,0.0,0.0,51,-99.99,,,-99.99,VWS V14.01,2013-07-16 22:25:00,
2013-07-16 18:26:00,88.5,68.1,30.28,WSW,250,0.0,0.0,51,-99.99,,,-99.99,VWS V14.01,2013-07-16 22:26:00,
2013-07-16 18:27:00,88.5,68.2,30.28,WSW,250,0.0,0.0,51,-99.99,,,-99.99,VWS V14.01,2013-07-16 22:27:00,
2013-07-16 18:28:00,88.4,68.4,30.28,West,276,3.2,3.2,52,-99.99,,,-99.99,VWS V14.01,2013-07-16 22:28:00,
2013-07-16 18:29:00,88.4,68.4,30.28,West,276,0.0,3.2,52,-99.99,,,-99.99,VWS V14.01,2013-07-16 22:29:00,
2013-07-16 18:30:00,88.4,68.4,30.28,West,276,0.0,0.0,52,-99.99,,,-99.99,VWS V14.01,2013-07-16 22:30:00,
2013-07-16 18:31:00,88.3,68.5,30.28,West,276,0.0,0.0,52,-99.99,,,-99.99,VWS V14.01,2013-07-16 22:31:00,
2013-07-16 18:32:00,88.5,68.8,30.28,West,276,0.0,0.0,52,-99.99,,,-99.99,VWS V14.01,2013-07-16 22:32:00,
2013-07-16 18:33:00,88.5,69.2,30.28,WNW,297,0.0,5.1,53,-99.99,,,-99.99,VWS V14.01,2013-07-16 22:33:00,
2013-07-16 18:34:00,88.4,69.1,30.28,WNW,297,0.0,5.1,53,-99.99,,,-99.99,VWS V14.01,2013-07-16 22:34:00,
2013-07-16 18:35:00,88.4,68.7,30.28,NW,319,0.0,4.1,52,-99.99,,,-99.99,VWS V14.01,2013-07-16 22:35:00,
2013-07-16 18:36:00,88.5,68.8,30.28,NW,319,0.0,0.0,52,-99.99,,,-99.99,VWS V14.01,2013-07-16 22:36:00,
2013-07-16 18:37:00,88.7,68.9,30.28,NW,319,0.0,0.0,52,-99.99,,,-99.99,VWS V14.01,2013-07-16 22:37:00,
2013-07-16 18:38:00,88.4,68.6,30.28,NW,319,0.0,0.0,52,-99.99,,,-99.99,VWS V14.01,2013-07-16 22:38:00,
2013-07-16 18:39:00,88.5,68.8,30.28,NW,319,0.0,0.0,52,-99.99,,,-99.99,VWS V14.01,2013-07-16 22:39:00,
2013-07-16 18:40:00,88.4,68.7,30.28,NW,319,0.0,0.0,52,-99.99,,,-99.99,VWS V14.01,2013-07-16 22:40:00,
2013-07-16 18:41:00,88.3,68.9,30.28,WNW,301,0.0,3.5,53,-99.99,,,-99.99,VWS V14.01,2013-07-16 22:41:00,
2013-07-16 18:42:00,88.3,69.2,30.28,WNW,301,0.0,0.0,53,-99.99,,,-99.99,VWS V14.01,2013-07-16 22:42:00,
2013-07-16 18:43:00,88.3,69.5,30.28,WNW,301,0.0,0.0,54,-99.99,,,-99.99,VWS V14.01,2013-07-16 22:43:00,
2013-07-16 18:44:00,88.2,69.5,30.28,WNW,301,0.0,0.0,54,-99.99,,,-99.99,VWS V14.01,2013-07-16 22:44:00,
2013-07-16 18:45:00,88.3,69.5,30.28,WNW,301,0.0,0.0,54,-99.99,,,-99.99,VWS V14.01,2013-07-16 22:45:00,
2013-07-16 18:46:00,88.2,69.4,30.28,WNW,301,0.0,0.0,54,-99.99,,,-99.99,VWS V14.01,2013-07-16 22:46:00,
2013-07-16 18:47:00,88.2,69.5,30.28,WNW,301,0.0,0.0,54,-99.99,,,-99.99,VWS V14.01,2013-07-16 22:47:00,
2013-07-16 18:48:00,88.1,69.2,30.28,WNW,301,0.0,0.0,54,-99.99,,,-99.99,VWS V14.01,2013-07-16 22:48:00,
2013-07-16 18:49:00,88.2,69.1,30.28,WNW,301,0.0,0.0,53,-99.99,,,-99.99,VWS V14.01,2013-07-16 22:49:00,
2013-07-16 18:50:00,88.2,69.1,30.28,WNW,301,0.0,0.0,53,-99.99,,,-99.99,VWS V14.01,2013-07-16 22:50:00,
2013-07-16 18:51:00,88.1,69.3,30.28,WNW,301,0.0,0.0,54,-99.99,,,-99.99,VWS V14.01,2013-07-16 22:51:00,
2013-07-16 18:52:00,88.2,69.4,30.28,WNW,301,0.0,0.0,54,-99.99,,,-99.99,VWS V14.01,2013-07-16 22:52:00,
2013-07-16 18:53:00,88.1,69.2,30.28,WNW,301,0.0,0.0,54,-99.99,,,-99.99,VWS V14.01,2013-07-16 22:53:00,
2013-07-16 18:54:00,88.2,69.3,30.28,WNW,301,0.0,0.0,54,-99.99,,,-99.99,VWS V14.01,2013-07-16 22:54:00,
2013-07-16 18:55:00,88.1,69.4,30.28,WNW,301,0.0,0.0,54,-99.99,,,-99.99,VWS V14.01,2013-07-16 22:55:00,
2013-07-16 18:56:00,88.0,69.4,30.28,WNW,301,0.0,0.0,54,-99.99,,,-99.99,VWS V14.01,2013-07-16 22:56:00,
2013-07-16 18:57:00,88.2,69.8,30.28,WNW,301,0.0,0.0,55,-99.99,,,-99.99,VWS V14.01,2013-07-16 22:57:00,
2013-07-16 18:58:00,88.0,69.4,30.28,WNW,301,0.0,0.0,54,-99.99,,,-99.99,VWS V14.01,2013-07-16 22:58:00,
2013-07-16 18:59:00,88.0,69.4,30.28,WNW,301,0.0,0.0,54,-99.99,,,-99.99,VWS V14.01,2013-07-16 22:59:00,
2013-07-16 19:00:00,88.1,69.9,30.28,WNW,301,0.0,0.0,55,-99.99,,,-99.99,VWS V14.01,2013-07-16 23:00:00,
2013-07-16 19:01:00,88.1,69.7,30.28,WNW,301,0.0,0.0,54,-99.99,,,-99.99,VWS V14.01,2013-07-16 23:01:00,
2013-07-16 19:02:00,88.1,69.7,30.28,WNW,300,0.0,3.4,55,-99.99,,,-99.99,VWS V14.01,2013-07-16 23:02:00,
2013-07-16 19:03:00,88.1,69.5,30.28,WNW,294,5.5,7.1,54,-99.99,,,-99.99,VWS V14.01,2013-07-16 23:03:00,
2013-07-16 19:04:00,88.1,69.5,30.28,NNW,338,5.7,7.1,54,-99.99,,,-99.99,VWS V14.01,2013-07-16 23:04:00,
2013-07-16 19:05:00,88.1,69.4,30.28,West,280,4.7,8.3,54,-99.99,,,-99.99,VWS V14.01,2013-07-16 23:05:00,
2013-07-16 19:06:00,88.1,69.9,30.28,WSW,252,0.0,4.7,55,-99.99,,,-99.99,VWS V14.01,2013-07-16 23:06:00,
2013-07-16 19:07:00,88.0,70.4,30.28,NNW,339,0.0,6.5,56,-99.99,,,-99.99,VWS V14.01,2013-07-16 23:07:00,
2013-07-16 19:08:00,88.1,71.0,30.28,WNW,294,3.4,4.2,57,-99.99,,,-99.99,VWS V14.01,2013-07-16 23:08:00,
2013-07-16 19:09:00,88.1,71.1,30.28,SSW,212,1.4,4.8,57,-99.99,,,-99.99,VWS V14.01,2013-07-16 23:09:00,
2013-07-16 19:10:00,88.1,71.2,30.28,WNW,287,0.0,8.9,57,-99.99,,,-99.99,VWS V14.01,2013-07-16 23:10:00,
2013-07-16 19:11:00,88.0,71.3,30.28,WNW,287,0.0,0.0,58,-99.99,,,-99.99,VWS V14.01,2013-07-16 23:11:00,
2013-07-16 19:12:00,88.0,71.4,30.28,WNW,287,0.0,1.5,58,-99.99,,,-99.99,VWS V14.01,2013-07-16 23:12:00,
2013-07-16 19:13:00,87.7,71.5,30.28,NW,314,4.5,4.5,59,-99.99,,,-99.99,VWS V14.01,2013-07-16 23:13:00,
2013-07-16 19:14:00,87.8,71.7,30.28,NW,314,0.0,4.5,59,-99.99,,,-99.99,VWS V14.01,2013-07-16 23:14:00,
2013-07-16 19:15:00,87.7,71.7,30.28,NW,314,0.0,0.0,59,-99.99,,,-99.99,VWS V14.01,2013-07-16 23:15:00,
2013-07-16 19:16:00,87.6,71.7,30.28,NNW,328,0.0,6.1,59,-99.99,,,-99.99,VWS V14.01,2013-07-16 23:16:00,
2013-07-16 19:17:00,87.5,71.8,30.28,NW,325,0.0,1.4,60,-99.99,,,-99.99,VWS V14.01,2013-07-16 23:17:00,
2013-07-16 19:18:00,87.5,72.0,30.28,NW,325,0.0,0.0,60,-99.99,,,-99.99,VWS V14.01,2013-07-16 23:18:00,
2013-07-16 19:19:00,87.3,71.8,30.28,NW,325,0.0,0.0,60,-99.99,,,-99.99,VWS V14.01,2013-07-16 23:19:00,
2013-07-16 19:20:00,87.3,72.1,30.28,NW,325,0.0,0.0,61,-99.99,,,-99.99,VWS V14.01,2013-07-16 23:20:00,
2013-07-16 19:23:00,87.1,72.3,30.29,NW,325,2.5,2.5,62,-99.99,,,-99.99,VWS V14.01,2013-07-16 23:23:00,
2013-07-16 19:25:00,87.2,72.7,30.28,NW,325,0.0,0.0,62,-99.99,,,-99.99,VWS V14.01,2013-07-16 23:25:00,
2013-07-16 19:26:00,86.9,72.5,30.28,NW,325,0.0,3.3,62,-99.99,,,-99.99,VWS V14.01,2013-07-16 23:26:00,
2013-07-16 19:27:00,86.9,72.6,30.28,NW,307,0.0,2.0,63,-99.99,,,-99.99,VWS V14.01,2013-07-16 23:27:00,
2013-07-16 19:28:00,86.7,72.6,30.28,NNW,328,0.0,5.2,63,-99.99,,,-99.99,VWS V14.01,2013-07-16 23:28:00,
2013-07-16 19:29:00,86.7,72.6,30.28,NNW,345,4.3,6.5,63,-99.99,,,-99.99,VWS V14.01,2013-07-16 23:29:00,
2013-07-16 19:30:00,86.6,72.6,30.29,NW,311,0.0,4.5,63,-99.99,,,-99.99,VWS V14.01,2013-07-16 23:30:00,
2013-07-16 19:31:00,86.5,72.6,30.29,NW,305,0.0,4.8,63,-99.99,,,-99.99,VWS V14.01,2013-07-16 23:31:00,
2013-07-16 19:32:00,86.5,72.6,30.29,WNW,300,4.4,5.6,63,-99.99,,,-99.99,VWS V14.01,2013-07-16 23:32:00,
2013-07-16 19:33:00,86.3,72.4,30.29,NW,322,0.0,6.5,63,-99.99,,,-99.99,VWS V14.01,2013-07-16 23:33:00,
2013-07-16 19:34:00,86.3,72.5,30.29,NW,322,0.0,6.5,64,-99.99,,,-99.99,VWS V14.01,2013-07-16 23:34:00,
2013-07-16 19:35:00,86.3,72.7,30.29,WNW,288,4.4,8.4,64,-99.99,,,-99.99,VWS V14.01,2013-07-16 23:35:00,
2013-07-16 19:36:00,86.2,72.8,30.29,WNW,302,3.1,4.4,64,-99.99,,,-99.99,VWS V14.01,2013-07-16 23:36:00,
2013-07-16 19:37:00,86.1,72.7,30.29,WNW,287,0.0,7.1,64,-99.99,,,-99.99,VWS V14.01,2013-07-16 23:37:00,
2013-07-16 19:38:00,85.9,72.6,30.29,WNW,283,0.0,0.0,65,-99.99,,,-99.99,VWS V14.01,2013-07-16 23:38:00,
2013-07-16 19:39:00,85.8,72.6,30.29,WNW,301,5.8,5.8,65,-99.99,,,-99.99,VWS V14.01,2013-07-16 23:39:00,
2013-07-16 19:40:00,85.8,72.7,30.29,NW,305,10.7,10.7,65,-99.99,,,-99.99,VWS V14.01,2013-07-16 23:40:00,
2013-07-16 19:41:00,85.6,72.4,30.29,NW,314,0.0,10.7,65,-99.99,,,-99.99,VWS V14.01,2013-07-16 23:41:00,
2013-07-16 19:42:00,85.5,72.3,30.29,West,270,0.0,5.9,65,-99.99,,,-99.99,VWS V14.01,2013-07-16 23:42:00,
2013-07-16 19:43:00,85.3,72.3,30.29,NW,316,4.3,9.6,65,-99.99,,,-99.99,VWS V14.01,2013-07-16 23:43:00,
2013-07-16 19:44:00,85.3,72.4,30.29,WSW,255,3.4,9.6,65,-99.99,,,-99.99,VWS V14.01,2013-07-16 23:44:00,
2013-07-16 19:45:00,85.1,72.2,30.29,SW,219,0.0,4.1,66,-99.99,,,-99.99,VWS V14.01,2013-07-16 23:45:00,
2013-07-16 19:46:00,85.1,72.3,30.29,NNW,328,3.3,3.4,66,-99.99,,,-99.99,VWS V14.01,2013-07-16 23:46:00,
2013-07-16 19:47:00,85.0,72.4,30.29,WSW,249,0.0,3.4,66,-99.99,,,-99.99,VWS V14.01,2013-07-16 23:47:00,
2013-07-16 19:48:00,85.0,72.7,30.29,West,273,0.0,4.3,67,-99.99,,,-99.99,VWS V14.01,2013-07-16 23:48:00,
2013-07-16 19:49:00,84.9,72.6,30.29,West,273,0.0,4.3,67,-99.99,,,-99.99,VWS V14.01,2013-07-16 23:49:00,
2013-07-16 19:50:00,85.0,72.7,30.29,West,273,0.0,0.0,67,-99.99,,,-99.99,VWS V14.01,2013-07-16 23:50:00,
2013-07-16 19:51:00,84.8,72.6,30.29,West,273,0.0,0.0,67,-99.99,,,-99.99,VWS V14.01,2013-07-16 23:51:00,
2013-07-16 19:52:00,84.7,72.3,30.29,West,280,3.4,7.8,66,-99.99,,,-99.99,VWS V14.01,2013-07-16 23:52:00,
2013-07-16 19:53:00,84.4,72.0,30.29,WSW,245,0.0,0.0,66,-99.99,,,-99.99,VWS V14.01,2013-07-16 23:53:00,
2013-07-16 19:54:00,84.5,72.0,30.29,WSW,245,0.0,0.0,66,-99.99,,,-99.99,VWS V14.01,2013-07-16 23:54:00,
2013-07-16 19:55:00,84.5,72.0,30.29,WSW,245,0.0,3.4,66,-99.99,,,-99.99,VWS V14.01,2013-07-16 23:55:00,
2013-07-16 19:56:00,84.3,71.8,30.30,WSW,245,0.0,0.0,66,-99.99,,,-99.99,VWS V14.01,2013-07-16 23:56:00,
2013-07-16 19:57:00,84.3,71.8,30.29,WSW,245,0.0,3.3,66,-99.99,,,-99.99,VWS V14.01,2013-07-16 23:57:00,
2013-07-16 19:58:00,84.2,71.8,30.29,WSW,245,0.0,0.0,66,-99.99,,,-99.99,VWS V14.01,2013-07-16 23:58:00,
2013-07-16 19:59:00,84.1,71.7,30.29,WSW,245,0.0,0.0,66,-99.99,,,-99.99,VWS V14.01,2013-07-16 23:59:00,
2013-07-16 20:00:00,84.0,71.6,30.29,WSW,245,0.0,0.0,66,-99.99,,,-99.99,VWS V14.01,2013-07-17 00:00:00,
2013-07-16 20:01:00,84.0,71.7,30.29,WSW,245,0.0,0.0,66,-99.99,,,-99.99,VWS V14.01,2013-07-17 00:01:00,
2013-07-16 20:02:00,84.0,71.8,30.29,WSW,245,0.0,3.4,67,-99.99,,,-99.99,VWS V14.01,2013-07-17 00:02:00,
2013-07-16 20:03:00,84.0,71.8,30.29,WSW,245,0.0,0.0,67,-99.99,,,-99.99,VWS V14.01,2013-07-17 00:03:00,
2013-07-16 20:04:00,84.0,71.9,30.29,WSW,245,0.0,0.0,67,-99.99,,,-99.99,VWS V14.01,2013-07-17 00:04:00,
2013-07-16 20:05:00,83.9,71.9,30.29,WSW,245,0.0,0.0,67,-99.99,,,-99.99,VWS V14.01,2013-07-17 00:05:00,
2013-07-16 20:07:00,83.9,72.1,30.29,West,273,0.0,0.0,68,-99.99,,,-99.99,VWS V14.01,2013-07-17 00:07:00,
2013-07-16 20:08:00,83.7,72.1,30.29,NNW,346,0.0,5.7,68,-99.99,,,-99.99,VWS V14.01,2013-07-17 00:08:00,
2013-07-16 20:09:00,83.7,72.2,30.29,NW,318,0.0,5.7,68,-99.99,,,-99.99,VWS V14.01,2013-07-17 00:09:00,
2013-07-16 20:10:00,83.7,72.2,30.29,WNW,301,0.0,4.3,68,-99.99,,,-99.99,VWS V14.01,2013-07-17 00:10:00,
2013-07-16 20:11:00,83.7,72.2,30.29,WNW,302,0.0,5.9,68,-99.99,,,-99.99,VWS V14.01,2013-07-17 00:11:00,
2013-07-16 20:12:00,83.5,72.4,30.29,WNW,302,0.0,0.0,69,-99.99,,,-99.99,VWS V14.01,2013-07-17 00:12:00,
2013-07-16 20:13:00,83.5,72.6,30.29,WNW,302,0.0,0.0,70,-99.99,,,-99.99,VWS V14.01,2013-07-17 00:13:00,
2013-07-16 20:14:00,83.5,72.6,30.29,WNW,302,0.0,0.0,70,-99.99,,,-99.99,VWS V14.01,2013-07-17 00:14:00,
2013-07-16 20:15:00,83.5,72.6,30.29,West,259,2.5,3.5,70,-99.99,,,-99.99,VWS V14.01,2013-07-17 00:15:00,
2013-07-16 20:16:00,83.4,72.5,30.29,West,259,0.0,3.4,70,-99.99,,,-99.99,VWS V14.01,2013-07-17 00:16:00,
2013-07-16 20:17:00,83.3,72.5,30.29,West,259,0.0,0.0,70,-99.99,,,-99.99,VWS V14.01,2013-07-17 00:17:00,
2013-07-16 20:18:00,83.4,72.6,30.29,West,259,0.0,0.0,70,-99.99,,,-99.99,VWS V14.01,2013-07-17 00:18:00,
2013-07-16 20:19:00,83.3,72.5,30.29,West,259,0.0,0.0,70,-99.99,,,-99.99,VWS V14.01,2013-07-17 00:19:00,
2013-07-16 20:20:00,83.2,72.4,30.29,West,259,0.0,0.0,70,-99.99,,,-99.99,VWS V14.01,2013-07-17 00:20:00,
2013-07-16 20:21:00,83.2,72.5,30.29,West,259,0.0,0.0,70,-99.99,,,-99.99,VWS V14.01,2013-07-17 00:21:00,
2013-07-16 20:22:00,83.2,72.5,30.29,West,259,0.0,0.0,70,-99.99,,,-99.99,VWS V14.01,2013-07-17 00:22:00,
2013-07-16 20:23:00,83.1,72.4,30.29,West,259,0.0,0.0,70,-99.99,,,-99.99,VWS V14.01,2013-07-17 00:23:00,
2013-07-16 20:24:00,83.0,72.3,30.29,West,259,0.0,0.0,70,-99.99,,,-99.99,VWS V14.01,2013-07-17 00:24:00,
2013-07-16 20:25:00,83.1,72.4,30.29,West,259,0.0,0.0,70,-99.99,,,-99.99,VWS V14.01,2013-07-17 00:25:00,
2013-07-16 20:26:00,83.0,72.2,30.29,West,259,0.0,0.0,70,-99.99,,,-99.99,VWS V14.01,2013-07-17 00:26:00,
2013-07-16 20:27:00,83.0,72.1,30.29,West,259,0.0,0.0,70,-99.99,,,-99.99,VWS V14.01,2013-07-17 00:27:00,
2013-07-16 20:28:00,82.9,71.9,30.29,West,259,0.0,0.0,70,-99.99,,,-99.99,VWS V14.01,2013-07-17 00:28:00,
2013-07-16 20:29:00,82.8,71.8,30.29,West,259,0.0,0.0,69,-99.99,,,-99.99,VWS V14.01,2013-07-17 00:29:00,
2013-07-16 20:30:00,82.8,71.8,30.29,West,259,0.0,0.0,69,-99.99,,,-99.99,VWS V14.01,2013-07-17 00:30:00,
2013-07-16 20:31:00,82.8,71.8,30.29,West,259,0.0,0.0,69,-99.99,,,-99.99,VWS V14.01,2013-07-17 00:31:00,
2013-07-16 20:32:00,82.7,71.7,30.29,West,259,0.0,0.0,69,-99.99,,,-99.99,VWS V14.01,2013-07-17 00:32:00,
2013-07-16 20:33:00,82.7,71.6,30.29,West,259,0.0,0.0,69,-99.99,,,-99.99,VWS V14.01,2013-07-17 00:33:00,
2013-07-16 20:34:00,82.6,71.5,30.29,West,259,0.0,0.0,69,-99.99,,,-99.99,VWS V14.01,2013-07-17 00:34:00,
2013-07-16 20:35:00,82.6,71.4,30.29,West,259,0.0,0.0,69,-99.99,,,-99.99,VWS V14.01,2013-07-17 00:35:00,
2013-07-16 20:36:00,82.6,71.4,30.29,West,259,0.0,0.0,69,-99.99,,,-99.99,VWS V14.01,2013-07-17 00:36:00,
2013-07-16 20:37:00,82.5,71.3,30.29,West,259,0.0,0.0,69,-99.99,,,-99.99,VWS V14.01,2013-07-17 00:37:00,
2013-07-16 20:38:00,82.4,71.4,30.29,West,259,0.0,0.0,69,-99.99,,,-99.99,VWS V14.01,2013-07-17 00:38:00,
2013-07-16 20:39:00,82.3,71.4,30.29,West,259,0.0,0.0,70,-99.99,,,-99.99,VWS V14.01,2013-07-17 00:39:00,
2013-07-16 20:40:00,82.3,71.5,30.29,West,259,0.0,0.0,70,-99.99,,,-99.99,VWS V14.01,2013-07-17 00:40:00,
2013-07-16 20:41:00,82.3,71.5,30.29,West,259,0.0,0.0,70,-99.99,,,-99.99,VWS V14.01,2013-07-17 00:41:00,
2013-07-16 20:42:00,82.2,71.4,30.29,West,259,0.0,0.0,70,-99.99,,,-99.99,VWS V14.01,2013-07-17 00:42:00,
2013-07-16 20:43:00,82.1,71.3,30.29,West,259,0.0,0.0,70,-99.99,,,-99.99,VWS V14.01,2013-07-17 00:43:00,
2013-07-16 20:44:00,82.1,71.3,30.29,West,259,0.0,0.0,70,-99.99,,,-99.99,VWS V14.01,2013-07-17 00:44:00,
2013-07-16 20:45:00,82.0,71.2,30.29,West,259,0.0,0.0,70,-99.99,,,-99.99,VWS V14.01,2013-07-17 00:45:00,
2013-07-16 20:46:00,82.0,71.4,30.29,West,259,0.0,0.0,70,-99.99,,,-99.99,VWS V14.01,2013-07-17 00:46:00,
2013-07-16 20:47:00,81.9,71.4,30.29,West,259,0.0,0.0,70,-99.99,,,-99.99,VWS V14.01,2013-07-17 00:47:00,
2013-07-16 20:48:00,81.8,71.4,30.29,West,259,0.0,0.0,71,-99.99,,,-99.99,VWS V14.01,2013-07-17 00:48:00,
2013-07-16 20:49:00,81.6,71.3,30.29,West,259,0.0,0.0,71,-99.99,,,-99.99,VWS V14.01,2013-07-17 00:49:00,
2013-07-16 20:50:00,81.5,71.4,30.29,West,259,0.0,0.0,71,-99.99,,,-99.99,VWS V14.01,2013-07-17 00:50:00,
2013-07-16 20:51:00,81.4,71.4,30.29,West,259,0.0,0.0,72,-99.99,,,-99.99,VWS V14.01,2013-07-17 00:51:00,
2013-07-16 20:52:00,81.4,71.4,30.29,West,259,0.0,0.0,72,-99.99,,,-99.99,VWS V14.01,2013-07-17 00:52:00,
2013-07-16 20:53:00,81.1,71.3,30.29,West,259,0.0,0.0,72,-99.99,,,-99.99,VWS V14.01,2013-07-17 00:53:00,
2013-07-16 20:54:00,81.1,71.3,30.29,West,259,0.0,0.0,72,-99.99,,,-99.99,VWS V14.01,2013-07-17 00:54:00,
2013-07-16 20:55:00,81.0,71.4,30.29,West,259,0.0,0.0,73,-99.99,,,-99.99,VWS V14.01,2013-07-17 00:55:00,
2013-07-16 20:56:00,80.9,71.3,30.29,West,259,0.0,0.0,73,-99.99,,,-99.99,VWS V14.01,2013-07-17 00:56:00,
2013-07-16 20:57:00,80.8,71.1,30.29,West,259,0.0,0.0,72,-99.99,,,-99.99,VWS V14.01,2013-07-17 00:57:00,
2013-07-16 20:58:00,80.6,71.1,30.29,West,259,0.0,0.0,73,-99.99,,,-99.99,VWS V14.01,2013-07-17 00:58:00,
2013-07-16 20:59:00,80.6,71.2,30.29,West,259,0.0,0.0,73,-99.99,,,-99.99,VWS V14.01,2013-07-17 00:59:00,
2013-07-16 21:00:00,80.3,71.1,30.29,West,259,0.0,0.0,74,-99.99,,,-99.99,VWS V14.01,2013-07-17 01:00:00,
2013-07-16 21:01:00,80.2,71.1,30.29,West,259,0.0,0.0,74,-99.99,,,-99.99,VWS V14.01,2013-07-17 01:01:00,
2013-07-16 21:02:00,80.1,71.2,30.29,West,259,0.0,0.0,74,-99.99,,,-99.99,VWS V14.01,2013-07-17 01:02:00,
2013-07-16 21:03:00,79.9,71.1,30.29,North,6,0.0,0.0,74,-99.99,,,-99.99,VWS V14.01,2013-07-17 01:03:00,
2013-07-16 21:04:00,79.8,71.0,30.29,North,6,0.0,0.0,75,-99.99,,,-99.99,VWS V14.01,2013-07-17 01:04:00,
2013-07-16 21:05:00,79.8,71.2,30.29,North,6,1.8,1.8,75,-99.99,,,-99.99,VWS V14.01,2013-07-17 01:05:00,
2013-07-16 21:06:00,79.7,71.2,30.30,North,6,0.0,1.8,75,-99.99,,,-99.99,VWS V14.01,2013-07-17 01:06:00,
2013-07-16 21:07:00,79.7,71.2,30.30,NW,315,0.0,6.2,75,-99.99,,,-99.99,VWS V14.01,2013-07-17 01:07:00,
2013-07-16 21:08:00,79.6,71.1,30.30,NW,307,0.0,7.4,75,-99.99,,,-99.99,VWS V14.01,2013-07-17 01:08:00,
2013-07-16 21:09:00,79.5,71.0,30.30,NW,307,0.0,7.4,75,-99.99,,,-99.99,VWS V14.01,2013-07-17 01:09:00,
2013-07-16 21:10:00,79.5,71.0,30.30,NW,307,0.0,0.0,75,-99.99,,,-99.99,VWS V14.01,2013-07-17 01:10:00,
2013-07-16 21:11:00,79.4,70.9,30.30,NW,307,0.0,0.0,75,-99.99,,,-99.99,VWS V14.01,2013-07-17 01:11:00,
2013-07-16 21:12:00,79.4,70.9,30.30,NW,323,9.2,9.2,75,-99.99,,,-99.99,VWS V14.01,2013-07-17 01:12:00,
2013-07-16 21:13:00,79.4,70.9,30.30,NNW,336,0.0,0.0,75,-99.99,,,-99.99,VWS V14.01,2013-07-17 01:13:00,
2013-07-16 21:14:00,79.4,71.0,30.30,NNW,336,0.0,1.7,76,-99.99,,,-99.99,VWS V14.01,2013-07-17 01:14:00,
2013-07-16 21:15:00,79.4,71.2,30.30,WNW,300,4.9,7.1,76,-99.99,,,-99.99,VWS V14.01,2013-07-17 01:15:00,
2013-07-16 21:16:00,79.3,71.0,30.30,NW,325,0.0,5.6,76,-99.99,,,-99.99,VWS V14.01,2013-07-17 01:16:00,
2013-07-16 21:17:00,79.3,70.9,30.30,NW,325,0.0,2.8,76,-99.99,,,-99.99,VWS V14.01,2013-07-17 01:17:00,
2013-07-16 21:18:00,79.2,70.9,30.30,NW,323,0.0,0.0,76,-99.99,,,-99.99,VWS V14.01,2013-07-17 01:18:00,
2013-07-16 21:19:00,79.2,70.8,30.30,NW,323,0.0,0.0,76,-99.99,,,-99.99,VWS V14.01,2013-07-17 01:19:00,
2013-07-16 21:20:00,79.1,70.7,30.30,North,8,0.0,6.0,76,-99.99,,,-99.99,VWS V14.01,2013-07-17 01:20:00,
2013-07-16 21:21:00,79.1,70.8,30.30,NNE,20,0.0,4.7,76,-99.99,,,-99.99,VWS V14.01,2013-07-17 01:21:00,
2013-07-16 21:22:00,79.1,70.8,30.30,NW,316,3.0,8.2,76,-99.99,,,-99.99,VWS V14.01,2013-07-17 01:22:00,
2013-07-16 21:23:00,79.1,70.8,30.30,NW,316,0.0,0.0,76,-99.99,,,-99.99,VWS V14.01,2013-07-17 01:23:00,
2013-07-16 21:24:00,79.0,70.8,30.30,NW,316,0.0,0.0,76,-99.99,,,-99.99,VWS V14.01,2013-07-17 01:24:00,
2013-07-16 21:25:00,79.1,70.8,30.30,NW,316,0.0,0.0,76,-99.99,,,-99.99,VWS V14.01,2013-07-17 01:25:00,
2013-07-16 21:26:00,79.2,71.0,30.30,NW,316,0.0,0.0,76,-99.99,,,-99.99,VWS V14.01,2013-07-17 01:26:00,
2013-07-16 21:27:00,79.1,70.8,30.30,NW,316,0.0,0.0,76,-99.99,,,-99.99,VWS V14.01,2013-07-17 01:27:00,
2013-07-16 21:28:00,79.1,70.8,30.30,NW,316,0.0,0.0,76,-99.99,,,-99.99,VWS V14.01,2013-07-17 01:28:00,
2013-07-16 21:29:00,79.2,70.9,30.30,NW,316,0.0,0.0,76,-99.99,,,-99.99,VWS V14.01,2013-07-17 01:29:00,
2013-07-16 21:30:00,79.2,70.9,30.30,NW,316,0.0,0.0,76,-99.99,,,-99.99,VWS V14.01,2013-07-17 01:30:00,
2013-07-16 21:31:00,79.1,70.7,30.30,NW,316,0.0,0.0,76,-99.99,,,-99.99,VWS V14.01,2013-07-17 01:31:00,
2013-07-16 21:32:00,79.2,70.8,30.30,NW,316,0.0,0.0,75,-99.99,,,-99.99,VWS V14.01,2013-07-17 01:32:00,
2013-07-16 21:33:00,79.1,70.7,30.31,NW,316,0.0,0.0,75,-99.99,,,-99.99,VWS V14.01,2013-07-17 01:33:00,
2013-07-16 21:34:00,79.2,70.8,30.31,NW,316,0.0,0.0,75,-99.99,,,-99.99,VWS V14.01,2013-07-17 01:34:00,
2013-07-16 21:35:00,79.2,70.8,30.31,NW,316,0.0,0.0,75,-99.99,,,-99.99,VWS V14.01,2013-07-17 01:35:00,
2013-07-16 21:36:00,79.1,70.7,30.31,NW,316,0.0,0.0,75,-99.99,,,-99.99,VWS V14.01,2013-07-17 01:36:00,
2013-07-16 21:37:00,79.1,70.6,30.31,NW,316,0.0,0.0,75,-99.99,,,-99.99,VWS V14.01,2013-07-17 01:37:00,
2013-07-16 21:38:00,79.1,70.6,30.31,NW,316,0.0,0.0,75,-99.99,,,-99.99,VWS V14.01,2013-07-17 01:38:00,
2013-07-16 21:39:00,79.3,70.8,30.31,NW,316,0.0,0.0,75,-99.99,,,-99.99,VWS V14.01,2013-07-17 01:39:00,
2013-07-16 21:40:00,79.1,70.7,30.30,NW,316,0.0,0.0,76,-99.99,,,-99.99,VWS V14.01,2013-07-17 01:40:00,
2013-07-16 21:41:00,79.1,70.7,30.30,NW,316,0.0,0.0,76,-99.99,,,-99.99,VWS V14.01,2013-07-17 01:41:00,
2013-07-16 21:42:00,79.1,70.7,30.30,NW,316,0.0,0.0,76,-99.99,,,-99.99,VWS V14.01,2013-07-17 01:42:00,
2013-07-16 21:43:00,79.1,70.7,30.30,NW,316,0.0,0.0,76,-99.99,,,-99.99,VWS V14.01,2013-07-17 01:43:00,
2013-07-16 21:44:00,79.1,70.7,30.30,NW,316,0.0,0.0,76,-99.99,,,-99.99,VWS V14.01,2013-07-17 01:44:00,
2013-07-16 21:45:00,79.0,70.5,30.31,NW,316,0.0,0.0,75,-99.99,,,-99.99,VWS V14.01,2013-07-17 01:45:00,
2013-07-16 21:46:00,79.0,70.6,30.31,NW,316,0.0,0.0,76,-99.99,,,-99.99,VWS V14.01,2013-07-17 01:46:00,
2013-07-16 21:47:00,78.9,70.6,30.30,NW,316,0.0,0.0,76,-99.99,,,-99.99,VWS V14.01,2013-07-17 01:47:00,
2013-07-16 21:48:00,79.0,70.8,30.31,NW,316,0.0,0.0,76,-99.99,,,-99.99,VWS V14.01,2013-07-17 01:48:00,
2013-07-16 21:49:00,78.9,70.7,30.31,NW,316,0.0,0.0,76,-99.99,,,-99.99,VWS V14.01,2013-07-17 01:49:00,
2013-07-16 21:50:00,78.9,70.7,30.30,NW,316,0.0,0.0,76,-99.99,,,-99.99,VWS V14.01,2013-07-17 01:50:00,
2013-07-16 21:51:00,78.8,70.6,30.30,NW,316,0.0,0.0,76,-99.99,,,-99.99,VWS V14.01,2013-07-17 01:51:00,
2013-07-16 21:52:00,79.0,70.9,30.30,NW,316,0.0,0.0,76,-99.99,,,-99.99,VWS V14.01,2013-07-17 01:52:00,
2013-07-16 21:53:00,78.9,71.0,30.30,NW,316,0.0,0.0,77,-99.99,,,-99.99,VWS V14.01,2013-07-17 01:53:00,
2013-07-16 21:54:00,79.0,71.2,30.30,NW,316,0.0,0.0,77,-99.99,,,-99.99,VWS V14.01,2013-07-17 01:54:00,
2013-07-16 21:55:00,78.9,71.1,30.30,NW,316,0.0,0.0,77,-99.99,,,-99.99,VWS V14.01,2013-07-17 01:55:00,
2013-07-16 21:56:00,78.8,71.1,30.30,NW,316,0.0,0.0,77,-99.99,,,-99.99,VWS V14.01,2013-07-17 01:56:00,
2013-07-16 21:57:00,78.8,71.4,30.30,NW,316,0.0,0.0,78,-99.99,,,-99.99,VWS V14.01,2013-07-17 01:57:00,
2013-07-16 21:58:00,78.7,71.2,30.30,NW,316,0.0,0.0,78,-99.99,,,-99.99,VWS V14.01,2013-07-17 01:58:00,
2013-07-16 21:59:00,78.7,71.2,30.30,NW,316,0.0,0.0,78,-99.99,,,-99.99,VWS V14.01,2013-07-17 01:59:00,
2013-07-16 22:00:00,78.6,71.2,30.31,NW,316,0.0,0.0,78,-99.99,,,-99.99,VWS V14.01,2013-07-17 02:00:00,
2013-07-16 22:01:00,78.7,71.3,30.30,NW,316,0.0,0.0,78,-99.99,,,-99.99,VWS V14.01,2013-07-17 02:01:00,
2013-07-16 22:02:00,78.6,71.2,30.30,NW,316,0.0,0.0,78,-99.99,,,-99.99,VWS V14.01,2013-07-17 02:02:00,
2013-07-16 22:03:00,78.6,71.2,30.31,NW,316,0.0,0.0,78,-99.99,,,-99.99,VWS V14.01,2013-07-17 02:03:00,
2013-07-16 22:04:00,78.5,71.1,30.31,NW,316,0.0,0.0,78,-99.99,,,-99.99,VWS V14.01,2013-07-17 02:04:00,
2013-07-16 22:05:00,78.4,71.0,30.31,NW,316,0.0,0.0,78,-99.99,,,-99.99,VWS V14.01,2013-07-17 02:05:00,
2013-07-16 22:06:00,78.4,71.0,30.31,NW,316,0.0,0.0,78,-99.99,,,-99.99,VWS V14.01,2013-07-17 02:06:00,
2013-07-16 22:07:00,78.4,71.0,30.31,NW,316,0.0,0.0,78,-99.99,,,-99.99,VWS V14.01,2013-07-17 02:07:00,
2013-07-16 22:08:00,78.5,71.1,30.31,NW,316,0.0,0.0,78,-99.99,,,-99.99,VWS V14.01,2013-07-17 02:08:00,
2013-07-16 22:09:00,78.3,71.0,30.31,NW,316,0.0,0.0,78,-99.99,,,-99.99,VWS V14.01,2013-07-17 02:09:00,
2013-07-16 22:10:00,78.4,71.1,30.31,NW,316,0.0,0.0,78,-99.99,,,-99.99,VWS V14.01,2013-07-17 02:10:00,
2013-07-16 22:11:00,78.3,71.0,30.31,NW,316,0.0,0.0,78,-99.99,,,-99.99,VWS V14.01,2013-07-17 02:11:00,
2013-07-16 22:12:00,78.1,70.7,30.31,NW,316,0.0,0.0,78,-99.99,,,-99.99,VWS V14.01,2013-07-17 02:12:00,
2013-07-16 22:13:00,78.2,70.8,30.31,NW,316,0.0,0.0,78,-99.99,,,-99.99,VWS V14.01,2013-07-17 02:13:00,
2013-07-16 22:14:00,78.2,70.9,30.31,NW,316,0.0,0.0,78,-99.99,,,-99.99,VWS V14.01,2013-07-17 02:14:00,
2013-07-16 22:15:00,78.1,70.9,30.31,NW,316,0.0,0.0,79,-99.99,,,-99.99,VWS V14.01,2013-07-17 02:15:00,
2013-07-16 22:16:00,78.1,70.9,30.31,NW,316,0.0,0.0,79,-99.99,,,-99.99,VWS V14.01,2013-07-17 02:16:00,
2013-07-16 22:17:00,78.2,71.0,30.31,NW,316,0.0,0.0,79,-99.99,,,-99.99,VWS V14.01,2013-07-17 02:17:00,
2013-07-16 22:18:00,78.1,70.9,30.31,NW,316,0.0,0.0,78,-99.99,,,-99.99,VWS V14.01,2013-07-17 02:18:00,
2013-07-16 22:19:00,78.1,71.0,30.31,NW,316,0.0,0.0,79,-99.99,,,-99.99,VWS V14.01,2013-07-17 02:19:00,
2013-07-16 22:20:00,77.9,70.8,30.31,NW,316,0.0,0.0,79,-99.99,,,-99.99,VWS V14.01,2013-07-17 02:20:00,
2013-07-16 22:21:00,77.9,70.8,30.31,NW,316,0.0,0.0,79,-99.99,,,-99.99,VWS V14.01,2013-07-17 02:21:00,
2013-07-16 22:22:00,78.0,70.8,30.31,NW,316,0.0,0.0,79,-99.99,,,-99.99,VWS V14.01,2013-07-17 02:22:00,
2013-07-16 22:23:00,77.9,70.8,30.31,NW,316,0.0,0.0,79,-99.99,,,-99.99,VWS V14.01,2013-07-17 02:23:00,
2013-07-16 22:24:00,77.8,70.7,30.31,NW,316,0.0,0.0,79,-99.99,,,-99.99,VWS V14.01,2013-07-17 02:24:00,
2013-07-16 22:25:00,78.0,71.0,30.31,NW,316,0.0,3.3,79,-99.99,,,-99.99,VWS V14.01,2013-07-17 02:25:00,
2013-07-16 22:26:00,77.8,70.8,30.31,NW,316,0.0,0.0,79,-99.99,,,-99.99,VWS V14.01,2013-07-17 02:26:00,
2013-07-16 22:27:00,77.9,70.9,30.31,NW,316,0.0,0.0,79,-99.99,,,-99.99,VWS V14.01,2013-07-17 02:27:00,
2013-07-16 22:28:00,77.9,70.9,30.31,NW,316,0.0,0.0,79,-99.99,,,-99.99,VWS V14.01,2013-07-17 02:28:00,
2013-07-16 22:29:00,77.8,70.9,30.31,NW,316,0.0,0.0,79,-99.99,,,-99.99,VWS V14.01,2013-07-17 02:29:00,
2013-07-16 22:30:00,77.8,71.0,30.31,NW,316,0.0,0.0,80,-99.99,,,-99.99,VWS V14.01,2013-07-17 02:30:00,
2013-07-16 22:31:00,77.8,71.0,30.31,NW,316,0.0,0.0,80,-99.99,,,-99.99,VWS V14.01,2013-07-17 02:31:00,
2013-07-16 22:32:00,77.8,71.0,30.31,NW,316,0.0,0.0,80,-99.99,,,-99.99,VWS V14.01,2013-07-17 02:32:00,
2013-07-16 22:33:00,77.8,71.0,30.31,NW,316,0.0,0.0,80,-99.99,,,-99.99,VWS V14.01,2013-07-17 02:33:00,
2013-07-16 22:34:00,77.8,71.0,30.31,NW,316,0.0,0.0,80,-99.99,,,-99.99,VWS V14.01,2013-07-17 02:34:00,
2013-07-16 22:35:00,77.7,70.9,30.31,NW,316,0.0,0.0,80,-99.99,,,-99.99,VWS V14.01,2013-07-17 02:35:00,
2013-07-16 22:36:00,77.7,71.0,30.31,NW,316,0.0,0.0,80,-99.99,,,-99.99,VWS V14.01,2013-07-17 02:36:00,
2013-07-16 22:37:00,77.8,71.1,30.31,NW,316,0.0,0.0,80,-99.99,,,-99.99,VWS V14.01,2013-07-17 02:37:00,
2013-07-16 22:38:00,77.8,71.1,30.31,NW,316,0.0,0.0,80,-99.99,,,-99.99,VWS V14.01,2013-07-17 02:38:00,
2013-07-16 22:39:00,77.8,71.1,30.31,NW,316,0.0,0.0,80,-99.99,,,-99.99,VWS V14.01,2013-07-17 02:39:00,
2013-07-16 22:40:00,77.7,71.0,30.31,NW,316,0.0,0.0,80,-99.99,,,-99.99,VWS V14.01,2013-07-17 02:40:00,
2013-07-16 22:41:00,77.8,71.1,30.31,NW,316,0.0,0.0,80,-99.99,,,-99.99,VWS V14.01,2013-07-17 02:41:00,
2013-07-16 22:42:00,77.8,71.2,30.31,NW,316,0.0,0.0,80,-99.99,,,-99.99,VWS V14.01,2013-07-17 02:42:00,
2013-07-16 22:43:00,77.8,71.2,30.31,NW,316,0.0,0.0,80,-99.99,,,-99.99,VWS V14.01,2013-07-17 02:43:00,
2013-07-16 22:44:00,77.8,71.1,30.31,NW,316,0.0,0.0,80,-99.99,,,-99.99,VWS V14.01,2013-07-17 02:44:00,
2013-07-16 22:45:00,77.8,71.2,30.31,NW,316,0.0,0.0,80,-99.99,,,-99.99,VWS V14.01,2013-07-17 02:45:00,
2013-07-16 22:46:00,77.8,71.1,30.31,NW,316,0.0,0.0,80,-99.99,,,-99.99,VWS V14.01,2013-07-17 02:46:00,
2013-07-16 22:47:00,77.8,71.1,30.31,NW,316,0.0,0.0,80,-99.99,,,-99.99,VWS V14.01,2013-07-17 02:47:00,
2013-07-16 22:48:00,77.8,71.1,30.30,NW,316,0.0,0.0,80,-99.99,,,-99.99,VWS V14.01,2013-07-17 02:48:00,
2013-07-16 22:49:00,77.9,71.2,30.30,NW,316,0.0,0.0,80,-99.99,,,-99.99,VWS V14.01,2013-07-17 02:49:00,
2013-07-16 22:50:00,77.9,71.2,30.31,NW,316,0.0,0.0,80,-99.99,,,-99.99,VWS V14.01,2013-07-17 02:50:00,
2013-07-16 22:51:00,77.9,71.2,30.31,NW,316,0.0,0.0,80,-99.99,,,-99.99,VWS V14.01,2013-07-17 02:51:00,
2013-07-16 22:52:00,78.0,71.3,30.31,NW,316,0.0,0.0,80,-99.99,,,-99.99,VWS V14.01,2013-07-17 02:52:00,
2013-07-16 22:53:00,78.0,71.3,30.31,NW,316,0.0,0.0,80,-99.99,,,-99.99,VWS V14.01,2013-07-17 02:53:00,
2013-07-16 22:54:00,78.0,71.3,30.31,NW,316,0.0,0.0,80,-99.99,,,-99.99,VWS V14.01,2013-07-17 02:54:00,
2013-07-16 22:55:00,78.0,71.3,30.31,NW,316,0.0,0.0,80,-99.99,,,-99.99,VWS V14.01,2013-07-17 02:55:00,
2013-07-16 22:56:00,77.9,71.2,30.31,NW,316,0.0,0.0,80,-99.99,,,-99.99,VWS V14.01,2013-07-17 02:56:00,
2013-07-16 22:57:00,77.9,71.3,30.31,NW,316,0.0,0.0,80,-99.99,,,-99.99,VWS V14.01,2013-07-17 02:57:00,
2013-07-16 22:58:00,77.9,71.3,30.31,NW,316,0.0,0.0,80,-99.99,,,-99.99,VWS V14.01,2013-07-17 02:58:00,
2013-07-16 22:59:00,78.0,71.4,30.31,NW,316,0.0,0.0,80,-99.99,,,-99.99,VWS V14.01,2013-07-17 02:59:00,
2013-07-16 23:00:00,77.9,71.3,30.31,NW,316,0.0,0.0,80,-99.99,,,-99.99,VWS V14.01,2013-07-17 03:00:00,